KC5DAQ-2 Weather Reports


Display with metric or nautical units.
time (UTC)temp
F
wind
direction
speed
MPH
gust
MPH
rain 1hr
in
rain 24hr
in
rain mn
in
humidity
%
barometer
mb
20260507195732 76 76 0.0 4.0 0.00 0.00 0.00 80 1006.6
20260507195632 76 127 0.0 4.0 0.00 0.00 0.00 80 1006.7
20260507195522 76 83 0.0 4.0 0.00 0.00 0.00 80 1006.7
20260507195417 76 138 0.0 4.0 0.00 0.00 0.00 80 1006.8
20260507195316 76 141 0.0 4.0 0.00 0.00 0.00 80 1006.8
20260507195209 76 28 0.0 6.0 0.00 0.00 0.00 80 1006.8
20260507195112 76 92 0.0 6.0 0.00 0.00 0.00 80 1006.8
20260507195009 76 89 0.0 6.0 0.00 0.00 0.00 80 1006.8
20260507194908 76 121 0.0 6.0 0.00 0.00 0.00 80 1006.8
20260507194806 76 121 0.0 6.0 0.00 0.00 0.00 80 1006.8
20260507194708 76 120 0.0 6.0 0.00 0.00 0.00 80 1006.8
20260507194608 76 96 0.0 6.0 0.00 0.00 0.00 80 1006.8
20260507194507 76 93 1.0 6.0 0.00 0.00 0.00 80 1006.9
20260507194406 76 34 3.0 6.0 0.00 0.00 0.00 80 1007.0
20260507194306 76 109 2.0 6.0 0.00 0.00 0.00 80 1007.0
20260507194206 76 82 0.0 6.0 0.00 0.00 0.00 80 1007.1
20260507194108 76 113 0.0 6.0 0.00 0.00 0.00 80 1007.1
20260507194008 76 114 0.0 6.0 0.00 0.00 0.00 80 1007.1
20260507193906 76 38 0.0 6.0 0.00 0.00 0.00 80 1007.2
20260507193806 76 109 0.0 6.0 0.00 0.00 0.00 80 1007.1
20260507193706 76 110 0.0 6.0 0.00 0.00 0.00 80 1007.2
20260507193606 76 104 2.0 6.0 0.00 0.00 0.00 80 1007.3
20260507193507 76 62 2.0 6.0 0.00 0.00 0.00 81 1007.3
20260507193408 76 73 0.0 7.0 0.00 0.00 0.00 81 1007.4
20260507193307 76 38 1.0 7.0 0.00 0.00 0.00 81 1007.4
20260507193208 76 82 1.0 7.0 0.00 0.00 0.00 81 1007.3
20260507193106 76 144 1.0 7.0 0.00 0.00 0.00 81 1007.3
20260507193008 75 75 0.0 7.0 0.00 0.00 0.00 81 1007.1
20260507192907 75 72 0.0 7.0 0.00 0.00 0.00 81 1007.1
20260507192807 75 72 0.0 7.0 0.00 0.00 0.00 81 1007.0
20260507192708 75 69 1.0 7.0 0.00 0.00 0.00 81 1007.0
20260507192606 75 337 2.0 7.0 0.00 0.00 0.00 80 1007.0
20260507192508 75 17 2.0 7.0 0.00 0.00 0.00 81 1006.9
20260507192403 75 117 0.0 3.0 0.00 0.00 0.00 81 1007.0
20260507192306 75 231 0.0 0.0 0.00 0.00 0.00 82 1007.0
20260507192203 75 107 0.0 0.0 0.00 0.00 0.00 82 1007.0
20260507192103 75 18 0.0 0.0 0.00 0.00 0.00 82 1007.0
20260507192002 75 18 0.0 0.0 0.00 0.00 0.00 82 1007.0
20260507191904 75 18 0.0 0.0 0.00 0.00 0.00 82 1007.0
20260507191802 75 55 0.0 0.0 0.00 0.00 0.00 82 1007.0
20260507191703 75 61 0.0 0.0 0.00 0.00 0.00 82 1007.0
20260507191602 75 300 0.0 3.0 0.00 0.00 0.00 82 1007.0
20260507191503 74 300 0.0 3.0 0.00 0.00 0.00 82 1007.0
20260507191405 74 79 0.0 3.0 0.00 0.00 0.00 82 1007.0
20260507191302 74 42 0.0 3.0 0.00 0.00 0.00 82 1007.1
20260507191203 74 41 0.0 3.0 0.00 0.00 0.00 82 1007.1
20260507191104 74 44 0.0 3.0 0.00 0.00 0.00 82 1007.2
20260507191005 74 6 0.0 3.0 0.00 0.00 0.00 82 1007.2
20260507190902 74 155 0.0 3.0 0.00 0.00 0.00 82 1007.2
20260507190803 74 127 0.0 3.0 0.00 0.00 0.00 82 1007.3
20260507190702 74 138 0.0 3.0 0.00 0.00 0.00 82 1007.3
20260507190603 74 82 0.0 3.0 0.00 0.00 0.00 82 1007.3
20260507190501 74 76 0.0 3.0 0.00 0.00 0.00 82 1007.4
20260507190404 74 71 0.0 3.0 0.00 0.00 0.00 82 1007.5
20260507190304 74 157 0.0 3.0 0.00 0.00 0.00 83 1007.5
20260507190204 74 157 0.0 3.0 0.00 0.00 0.00 83 1007.5
20260507190005 73 65 0.0 3.0 0.00 0.00 0.00 82 1007.7
20260507185904 73 65 0.0 3.0 0.00 0.00 0.00 82 1007.9
20260507185803 73 69 0.0 3.0 0.00 0.00 0.00 82 1007.9
20260507185702 73 51 0.0 3.0 0.00 0.00 0.00 83 1007.9
20260507185603 73 141 0.0 0.0 0.00 0.00 0.00 83 1007.8
20260507185502 73 83 0.0 0.0 0.00 0.00 0.00 84 1007.8
20260507185405 73 83 0.0 1.0 0.00 0.00 0.00 84 1007.7
20260507185305 73 82 0.0 1.0 0.00 0.00 0.00 84 1007.7
20260507185201 73 55 0.0 1.0 0.00 0.00 0.00 83 1007.7
20260507185104 73 55 0.0 1.0 0.00 0.00 0.00 83 1007.7
20260507185004 73 55 0.0 1.0 0.00 0.00 0.00 83 1007.8
20260507184902 73 89 0.0 1.0 0.00 0.00 0.00 83 1007.8
20260507184804 73 89 0.0 3.0 0.00 0.00 0.00 83 1007.9
20260507184704 73 90 0.0 3.0 0.00 0.00 0.00 83 1007.9
20260507184603 73 90 0.0 3.0 0.00 0.00 0.00 84 1007.9
20260507184504 73 75 0.0 3.0 0.00 0.00 0.00 84 1008.1
20260507184404 73 30 0.0 3.0 0.00 0.00 0.00 84 1008.0
20260507184304 72 75 0.0 3.0 0.00 0.00 0.00 84 1008.0
20260507184204 72 75 0.0 3.0 0.00 0.00 0.00 83 1008.0
20260507184103 72 102 0.0 3.0 0.00 0.00 0.00 83 1008.1
20260507184001 72 127 0.0 3.0 0.00 0.00 0.00 83 1008.2
20260507183857 72 130 0.0 3.0 0.00 0.00 0.00 83 1008.2
20260507183752 72 357 0.0 2.0 0.00 0.00 0.00 83 1008.2
20260507183647 72 75 0.0 2.0 0.00 0.00 0.00 83 1008.2
20260507183543 72 97 0.0 2.0 0.00 0.00 0.00 83 1008.1
20260507183438 72 0 0.0 2.0 0.00 0.00 0.00 83 1008.0
20260507183332 72 79 0.0 4.0 0.00 0.00 0.00 83 1008.0
20260507183232 72 79 0.0 4.0 0.00 0.00 0.00 83 1007.9
20260507183132 72 75 0.0 4.0 0.00 0.00 0.00 83 1007.9
20260507183033 72 79 0.0 4.0 0.00 0.00 0.00 84 1008.0
20260507182933 72 79 0.0 4.0 0.00 0.00 0.00 84 1008.0
20260507182833 72 79 0.0 4.0 0.00 0.00 0.00 84 1008.0
20260507182733 72 290 0.0 4.0 0.00 0.00 0.00 84 1008.2
20260507182632 72 86 0.0 4.0 0.00 0.00 0.00 84 1008.2
20260507182531 72 34 1.0 4.0 0.00 0.00 0.00 84 1008.2
20260507182424 71 93 1.0 4.0 0.00 0.00 0.00 85 1008.2
20260507182318 71 192 1.0 4.0 0.00 0.00 0.00 84 1008.2
20260507182219 71 296 2.0 4.0 0.00 0.00 0.00 84 1008.2
20260507182113 71 66 2.0 4.0 0.00 0.00 0.00 84 1008.3
20260507182007 71 27 1.0 3.0 0.00 0.00 0.00 84 1008.3
20260507181906 71 94 0.0 3.0 0.00 0.00 0.00 84 1008.2
20260507181804 71 96 1.0 3.0 0.00 0.00 0.00 84 1008.1
20260507181706 71 286 0.0 3.0 0.00 0.00 0.00 84 1008.1
20260507181604 71 144 0.0 3.0 0.00 0.00 0.00 84 1008.1
20260507181504 71 173 0.0 3.0 0.00 0.00 0.00 84 1008.1
20260507181405 71 82 0.0 3.0 0.00 0.00 0.00 84 1008.1
20260507181304 71 63 0.0 3.0 0.00 0.00 0.00 84 1008.0
20260507181205 71 68 0.0 3.0 0.00 0.00 0.00 85 1008.1
20260507181106 71 78 0.0 1.0 0.00 0.00 0.00 85 1008.2
20260507181006 71 121 0.0 1.0 0.00 0.00 0.00 85 1008.2
20260507180904 71 118 0.0 1.0 0.00 0.00 0.00 85 1008.2
20260507180804 71 348 0.0 5.0 0.00 0.00 0.00 85 1008.3
20260507180706 71 75 0.0 5.0 0.00 0.00 0.00 85 1008.3
20260507180604 71 293 0.0 5.0 0.00 0.00 0.00 85 1008.2
20260507180505 71 61 0.0 5.0 0.00 0.00 0.00 85 1008.2
20260507180404 71 357 0.0 5.0 0.00 0.00 0.00 85 1008.3
20260507180304 71 99 0.0 5.0 0.00 0.00 0.00 86 1008.3
20260507180209 71 55 0.0 5.0 0.00 0.00 0.00 86 1008.3
20260507180104 70 90 0.0 5.0 0.00 0.00 0.00 86 1008.3
20260507180004 70 202 1.0 5.0 0.00 0.00 0.00 86 1008.4
20260507175905 70 121 1.0 5.0 0.00 0.00 0.00 86 1008.4
20260507175804 70 49 0.0 5.0 0.00 0.00 0.00 86 1008.5
20260507175705 70 69 0.0 5.0 0.00 0.00 0.00 86 1008.5
20260507175606 70 341 0.0 5.0 0.00 0.00 0.00 86 1008.5
20260507175505 70 348 0.0 5.0 0.00 0.00 0.00 86 1008.5
20260507175404 70 151 0.0 5.0 0.00 0.00 0.00 86 1008.5
20260507175307 70 313 0.0 5.0 0.00 0.00 0.00 86 1008.5
20260507175207 70 243 0.0 5.0 0.00 0.00 0.00 86 1008.4
20260507175104 70 114 2.0 5.0 0.00 0.00 0.00 86 1008.6
20260507175005 70 14 2.0 5.0 0.00 0.00 0.00 87 1008.5
20260507174905 70 221 1.0 5.0 0.00 0.00 0.00 87 1008.6
20260507174804 70 47 0.0 5.0 0.00 0.00 0.00 87 1008.6
20260507174707 69 87 0.0 5.0 0.00 0.00 0.00 87 1008.6
20260507174605 69 89 0.0 5.0 0.00 0.00 0.00 87 1008.5
20260507174505 69 104 0.0 5.0 0.00 0.00 0.00 87 1008.6
20260507174404 69 290 0.0 5.0 0.00 0.00 0.00 87 1008.6
20260507174304 69 52 0.0 5.0 0.00 0.00 0.00 87 1008.6
20260507174210 69 52 1.0 5.0 0.00 0.00 0.00 87 1008.6
20260507174103 69 61 0.0 3.0 0.00 0.00 0.00 87 1008.6
20260507174006 69 90 0.0 0.0 0.00 0.00 0.00 87 1008.6
20260507173904 69 128 0.0 0.0 0.00 0.00 0.00 87 1008.6
20260507173804 69 230 0.0 1.0 0.00 0.00 0.00 87 1008.6
20260507173705 69 231 0.0 1.0 0.00 0.00 0.00 88 1008.6
20260507173604 69 230 0.0 1.0 0.00 0.00 0.00 88 1008.6
20260507173503 69 221 0.0 1.0 0.00 0.00 0.00 88 1008.6
20260507173404 69 347 0.0 1.0 0.00 0.00 0.00 88 1008.7
20260507173303 69 347 0.0 1.0 0.00 0.00 0.00 87 1008.8
20260507173203 69 329 0.0 1.0 0.00 0.00 0.00 88 1008.8
20260507173106 69 75 0.0 1.0 0.00 0.00 0.00 88 1008.9
20260507173005 69 72 0.0 1.0 0.00 0.00 0.00 87 1009.0
20260507172904 69 34 0.0 1.0 0.00 0.00 0.00 87 1009.0
20260507172804 69 72 0.0 0.0 0.00 0.00 0.00 87 1009.1
20260507172706 69 73 0.0 0.0 0.00 0.00 0.00 87 1009.0
20260507172604 69 72 0.0 0.0 0.00 0.00 0.00 87 1009.0
20260507172503 69 86 0.0 0.0 0.00 0.00 0.00 87 1009.1
20260507172404 69 7 0.0 0.0 0.00 0.00 0.00 88 1009.1
20260507172307 69 80 0.0 0.0 0.00 0.00 0.00 88 1009.2
20260507172204 69 82 0.0 0.0 0.00 0.00 0.00 88 1009.1
20260507172103 68 63 0.0 0.0 0.00 0.00 0.00 88 1009.1
20260507172003 68 63 0.0 0.0 0.00 0.00 0.00 88 1009.1
20260507171903 68 0 0.0 4.0 0.00 0.00 0.00 88 1009.1
20260507171804 68 56 0.0 4.0 0.00 0.00 0.00 88 1009.1
20260507171703 68 65 0.0 4.0 0.00 0.00 0.00 88 1009.1
20260507171603 68 65 0.0 4.0 0.00 0.00 0.00 88 1009.1
20260507171505 68 85 0.0 4.0 0.00 0.00 0.00 88 1009.1
20260507171403 68 100 0.0 4.0 0.00 0.00 0.00 88 1009.2
20260507171303 68 93 0.0 4.0 0.00 0.00 0.00 88 1009.1
20260507171203 68 100 0.0 4.0 0.00 0.00 0.00 88 1009.2
20260507171103 68 241 0.0 4.0 0.00 0.00 0.00 88 1009.2
20260507171005 68 85 0.0 4.0 0.00 0.00 0.00 88 1009.3
20260507170903 68 111 0.0 3.0 0.00 0.00 0.00 88 1009.4
20260507170803 68 97 0.0 3.0 0.00 0.00 0.00 88 1009.3
20260507170705 68 97 0.0 3.0 0.00 0.00 0.00 88 1009.4
20260507170603 68 97 0.0 3.0 0.00 0.00 0.00 88 1009.3
20260507170504 68 100 0.0 3.0 0.00 0.00 0.00 89 1009.3
20260507170404 68 0 0.0 3.0 0.00 0.00 0.00 89 1009.4
20260507170304 68 66 0.0 2.0 0.00 0.00 0.00 89 1009.2
20260507170204 68 61 0.0 5.0 0.00 0.00 0.00 89 1009.2
20260507170103 68 89 0.0 5.0 0.00 0.00 0.00 89 1009.2
20260507170005 68 89 0.0 5.0 0.00 0.00 0.00 89 1009.1
20260507165903 68 89 0.0 5.0 0.00 0.00 0.00 90 1008.9
20260507165804 68 86 0.0 5.0 0.00 0.00 0.00 90 1009.0
20260507165707 67 347 0.0 5.0 0.00 0.00 0.00 89 1009.0
20260507165603 67 345 0.0 5.0 0.00 0.00 0.00 90 1009.0
20260507165506 67 350 0.0 5.0 0.00 0.00 0.00 90 1009.0
20260507165404 67 272 1.0 5.0 0.00 0.00 0.00 90 1009.0
20260507165306 67 47 1.0 5.0 0.00 0.00 0.00 90 1009.0
20260507165205 67 71 0.0 3.0 0.00 0.00 0.00 90 1008.9
20260507165103 67 78 0.0 3.0 0.00 0.00 0.00 90 1008.9
20260507165003 67 20 0.0 3.0 0.00 0.00 0.00 90 1008.9
20260507164903 67 340 0.0 3.0 0.00 0.00 0.00 90 1008.9
20260507164802 67 341 0.0 3.0 0.00 0.00 0.00 90 1009.0
20260507164706 67 338 0.0 3.0 0.00 0.00 0.00 90 1009.0
20260507164603 67 47 0.0 3.0 0.00 0.00 0.00 90 1008.9
20260507164504 67 90 1.0 3.0 0.00 0.00 0.00 90 1008.9
20260507164403 67 80 0.0 3.0 0.00 0.00 0.00 90 1008.9
20260507164302 67 134 0.0 3.0 0.00 0.00 0.00 90 1009.0
20260507164202 67 323 0.0 4.0 0.00 0.00 0.00 90 1008.8
20260507164104 66 114 0.0 4.0 0.00 0.00 0.00 90 1008.8
20260507164005 66 103 0.0 5.0 0.00 0.00 0.00 91 1008.8
20260507163903 66 302 0.0 5.0 0.00 0.00 0.00 91 1008.8
20260507163804 66 179 0.0 5.0 0.00 0.00 0.00 90 1008.8
20260507163703 66 134 1.0 5.0 0.00 0.00 0.00 90 1008.8
20260507163602 66 147 1.0 5.0 0.00 0.00 0.00 90 1008.8
20260507163503 66 104 1.0 5.0 0.00 0.00 0.00 90 1008.9
20260507163403 66 72 2.0 5.0 0.00 0.00 0.00 91 1008.9
20260507163302 66 99 2.0 5.0 0.00 0.00 0.00 91 1008.9
20260507163202 66 42 2.0 6.0 0.00 0.00 0.00 91 1008.9
20260507163104 66 93 2.0 6.0 0.00 0.00 0.00 91 1008.9
20260507163004 66 41 0.0 6.0 0.00 0.00 0.00 91 1008.9
20260507162903 66 142 0.0 6.0 0.00 0.00 0.00 91 1008.8
20260507162802 65 92 0.0 6.0 0.00 0.00 0.00 91 1008.8
20260507162704 65 90 0.0 6.0 0.00 0.00 0.00 91 1008.8
20260507162603 65 120 0.0 6.0 0.00 0.00 0.00 92 1008.7
20260507162504 65 121 0.0 6.0 0.00 0.00 0.00 92 1008.8
20260507162402 65 76 2.0 6.0 0.00 0.00 0.00 92 1008.8
20260507162306 65 68 2.0 6.0 0.00 0.00 0.00 92 1008.7
20260507162204 65 320 0.0 4.0 0.00 0.00 0.00 92 1008.7
20260507162102 65 96 0.0 4.0 0.00 0.00 0.00 92 1008.7
20260507162003 65 94 0.0 4.0 0.00 0.00 0.00 92 1008.7
20260507161902 65 94 0.0 4.0 0.00 0.00 0.00 92 1008.7
20260507161803 65 94 0.0 4.0 0.00 0.00 0.00 92 1008.6
20260507161702 65 93 1.0 4.0 0.00 0.00 0.00 92 1008.5
20260507161604 65 104 2.0 6.0 0.00 0.00 0.00 92 1008.5
20260507161502 65 17 1.0 6.0 0.00 0.00 0.00 92 1008.5
20260507161402 65 83 0.0 6.0 0.00 0.00 0.00 92 1008.4
20260507161303 65 85 1.0 6.0 0.00 0.00 0.00 92 1008.5
20260507161203 65 59 1.0 6.0 0.00 0.00 0.00 93 1008.4
20260507161103 65 319 1.0 6.0 0.00 0.00 0.00 93 1008.4
20260507161003 64 65 0.0 6.0 0.00 0.00 0.00 93 1008.5
20260507160859 64 27 0.0 6.0 0.00 0.00 0.00 93 1008.5
20260507160757 64 169 2.0 6.0 0.00 0.00 0.00 94 1008.6
20260507160652 64 83 3.0 6.0 0.00 0.00 0.00 94 1008.6
20260507160551 64 85 2.0 4.0 0.00 0.00 0.00 94 1008.6
20260507160449 64 111 0.0 4.0 0.00 0.00 0.00 94 1008.6
20260507160348 64 92 1.0 4.0 0.00 0.00 0.00 94 1008.6
20260507160248 64 92 1.0 4.0 0.00 0.00 0.00 94 1008.5
20260507160146 64 79 0.0 4.0 0.00 0.00 0.00 94 1008.6
20260507160044 64 66 1.0 4.0 0.00 0.00 0.00 94 1008.6
20260507155943 64 68 1.0 4.0 0.00 0.00 0.00 94 1008.5
20260507155841 64 59 1.0 4.0 0.00 0.00 0.00 94 1008.5
20260507155738 64 165 2.0 4.0 0.00 0.00 0.00 94 1008.4
20260507155637 64 173 2.0 4.0 0.00 0.00 0.00 95 1008.5
20260507155533 64 130 1.0 2.0 0.00 0.00 0.00 95 1008.5
20260507155432 63 354 1.0 4.0 0.00 0.00 0.00 94 1008.4
20260507155332 63 86 0.0 4.0 0.00 0.00 0.00 94 1008.4
20260507155231 63 72 0.0 4.0 0.00 0.00 0.00 94 1008.4
20260507155133 63 72 0.0 5.0 0.00 0.00 0.00 94 1008.4
20260507155032 63 69 0.0 5.0 0.00 0.00 0.00 94 1008.3
20260507154933 63 69 0.0 5.0 0.00 0.00 0.00 94 1008.3
20260507154832 63 71 0.0 5.0 0.00 0.00 0.00 94 1008.3
20260507154731 63 63 0.0 5.0 0.00 0.00 0.00 94 1008.3
20260507154634 63 27 1.0 5.0 0.00 0.00 0.00 94 1008.2
20260507154531 63 25 1.0 5.0 0.00 0.00 0.00 94 1008.1
20260507154429 63 65 0.0 5.0 0.00 0.00 0.00 94 1008.2
20260507154323 63 45 1.0 5.0 0.00 0.00 0.00 94 1008.1
20260507154219 63 80 1.0 6.0 0.00 0.00 0.00 94 1008.2
20260507154113 63 3 0.0 6.0 0.00 0.00 0.00 94 1008.1
20260507154011 62 106 0.0 6.0 0.00 0.00 0.00 94 1008.1
20260507153904 63 45 1.0 6.0 0.00 0.00 0.00 94 1008.1
20260507153802 62 47 0.0 6.0 0.00 0.00 0.00 94 1008.2
20260507153705 62 120 0.0 6.0 0.00 0.00 0.00 94 1008.2
20260507153603 62 123 1.0 6.0 0.00 0.00 0.00 94 1008.2
20260507153505 62 355 2.0 6.0 0.00 0.00 0.00 95 1008.2
20260507153403 62 125 3.0 6.0 0.00 0.00 0.00 95 1008.2
20260507153303 62 140 2.0 6.0 0.00 0.00 0.00 95 1008.3
20260507153204 62 147 1.0 4.0 0.00 0.00 0.00 95 1008.3
20260507153102 62 71 1.0 4.0 0.00 0.00 0.00 95 1008.3
20260507153004 62 56 1.0 4.0 0.00 0.00 0.00 95 1008.4
20260507152902 62 71 1.0 6.0 0.00 0.00 0.00 95 1008.4
20260507152802 62 87 1.0 6.0 0.00 0.00 0.00 95 1008.4
20260507152703 62 96 1.0 6.0 0.00 0.00 0.00 95 1008.5
20260507152604 62 42 1.0 6.0 0.00 0.00 0.00 95 1008.5
20260507152504 62 140 1.0 6.0 0.00 0.00 0.00 95 1008.5
20260507152402 62 80 1.0 6.0 0.00 0.00 0.00 95 1008.5
20260507152306 62 102 1.0 6.0 0.00 0.00 0.00 95 1008.6
20260507152202 62 73 1.0 6.0 0.00 0.00 0.00 95 1008.7
20260507152103 62 66 2.0 6.0 0.00 0.00 0.00 95 1008.6
20260507152003 62 73 3.0 6.0 0.00 0.00 0.00 95 1008.7
20260507151901 62 48 1.0 5.0 0.00 0.00 0.00 95 1008.6
20260507151800 62 134 0.0 5.0 0.00 0.00 0.00 95 1008.7
20260507151700 62 114 0.0 5.0 0.00 0.00 0.00 95 1008.7
20260507151601 62 59 0.0 5.0 0.00 0.00 0.00 95 1008.7
20260507151501 62 42 1.0 6.0 0.00 0.00 0.00 95 1008.7
20260507151402 62 76 2.0 6.0 0.00 0.00 0.00 95 1008.6
20260507151300 62 55 1.0 6.0 0.00 0.00 0.00 95 1008.5
20260507151201 62 107 1.0 6.0 0.00 0.00 0.00 95 1008.5
20260507151103 62 107 2.0 6.0 0.00 0.00 0.00 95 1008.4
20260507151000 62 89 1.0 6.0 0.00 0.00 0.00 95 1008.4
20260507150901 62 109 0.0 6.0 0.00 0.00 0.00 95 1008.4
20260507150802 62 109 1.0 9.0 0.00 0.00 0.00 95 1008.4
20260507150705 62 110 2.0 9.0 0.00 0.00 0.00 95 1008.4
20260507150600 62 140 2.0 9.0 0.00 0.00 0.00 95 1008.4
20260507150503 62 85 1.0 9.0 0.00 0.00 0.00 95 1008.4
20260507150400 62 286 1.0 9.0 0.00 0.00 0.00 95 1008.4
20260507150300 62 107 2.0 9.0 0.00 0.00 0.00 95 1008.4
20260507150202 62 80 0.0 9.0 0.00 0.00 0.00 95 1008.4
20260507150100 62 83 0.0 9.0 0.00 0.00 0.00 95 1008.3
20260507150001 62 83 3.0 9.0 0.00 0.00 0.00 96 1008.3
20260507145902 62 68 4.0 9.0 0.00 0.00 0.00 96 1008.2
20260507145801 62 78 3.0 9.0 0.00 0.00 0.00 96 1008.3
20260507145700 62 58 1.0 9.0 0.00 0.00 0.00 96 1008.2
20260507145603 62 271 0.0 6.0 0.00 0.00 0.00 96 1008.3
20260507145501 62 271 1.0 6.0 0.00 0.00 0.00 96 1008.2
20260507145401 61 85 1.0 7.0 0.00 0.00 0.00 96 1008.2
20260507145300 61 85 1.0 7.0 0.00 0.00 0.00 96 1008.2
20260507145203 62 63 0.0 7.0 0.00 0.00 0.00 96 1008.2
20260507145100 61 353 0.0 7.0 0.00 0.00 0.00 96 1008.2
20260507145000 61 353 0.0 7.0 0.00 0.00 0.00 96 1008.3
20260507144902 61 76 1.0 7.0 0.00 0.00 0.00 96 1008.3
20260507144801 61 82 1.0 7.0 0.00 0.00 0.00 96 1008.4
20260507144700 61 0 1.0 7.0 0.00 0.00 0.00 96 1008.4
20260507144601 61 66 3.0 7.0 0.00 0.00 0.00 96 1008.4
20260507144502 61 80 2.0 7.0 0.00 0.00 0.00 96 1008.5
20260507144402 61 90 1.0 7.0 0.00 0.00 0.00 96 1008.5
20260507144301 61 107 1.0 7.0 0.00 0.00 0.00 96 1008.5
20260507144202 61 80 1.0 11.0 0.00 0.00 0.00 96 1008.5
20260507144127 61 92 3.0 11.0 0.00 0.00 0.00 96 1008.5
20260507144116 61 127 1.0 11.0 0.00 0.00 0.00 96 1008.5
20260507144051 61 11 1.0 11.0 0.00 0.00 0.00 96 1008.6
20260507144031 61 0 2.0 11.0 0.00 0.00 0.00 96 1008.5
20260507143700 61 94 3.0 11.0 0.00 0.00 0.00 96 1008.5
20260507143600 61 61 1.0 11.0 0.00 0.00 0.00 96 1008.4
20260507143502 61 75 1.0 11.0 0.00 0.00 0.00 96 1008.4
20260507143400 61 75 3.0 11.0 0.00 0.00 0.00 97 1008.4
20260507143259 61 327 3.0 11.0 0.00 0.00 0.00 97 1008.4
20260507143201 61 0 3.0 10.0 0.00 0.00 0.00 97 1008.5
20260507143059 61 41 3.0 10.0 0.00 0.00 0.00 97 1008.4
20260507143000 61 109 4.0 10.0 0.00 0.00 0.00 97 1008.5
20260507142901 61 92 2.0 10.0 0.00 0.00 0.00 97 1008.4
20260507142801 61 72 2.0 10.0 0.00 0.00 0.00 97 1008.4
20260507142659 61 7 2.0 10.0 0.00 0.00 0.00 97 1008.4
20260507142601 61 116 1.0 4.0 0.00 0.00 0.00 97 1008.4
20260507142501 61 116 1.0 4.0 0.00 0.00 0.00 97 1008.4
20260507142359 61 0 1.0 4.0 0.00 0.00 0.00 97 1008.4
20260507142300 61 148 0.0 3.0 0.00 0.00 0.00 97 1008.5
20260507142159 61 133 0.0 3.0 0.00 0.00 0.00 97 1008.5
20260507142101 61 131 1.0 3.0 0.00 0.00 0.00 97 1008.5
20260507142000 61 133 1.0 3.0 0.00 0.00 0.00 97 1008.5
20260507141900 61 147 0.0 4.0 0.00 0.00 0.00 97 1008.5
20260507141759 61 175 1.0 4.0 0.00 0.00 0.00 97 1008.4
20260507141700 61 111 1.0 4.0 0.00 0.00 0.00 97 1008.4
20260507141600 61 4 0.0 5.0 0.00 0.00 0.00 97 1008.4
20260507141459 61 138 0.0 5.0 0.00 0.00 0.00 97 1008.4
20260507141400 61 121 0.0 5.0 0.00 0.00 0.00 97 1008.4
20260507141300 61 127 0.0 6.0 0.00 0.00 0.00 97 1008.4
20260507141159 61 90 0.0 7.0 0.00 0.00 0.00 97 1008.5
20260507141059 61 340 0.0 7.0 0.00 0.00 0.00 97 1008.4
20260507141000 61 8 0.0 7.0 0.00 0.00 0.00 97 1008.4
20260507140859 61 80 0.0 7.0 0.00 0.00 0.00 97 1008.4
20260507140757 61 75 0.0 7.0 0.00 0.00 0.00 97 1008.4
20260507140653 61 79 0.0 7.0 0.00 0.00 0.00 97 1008.5
20260507140554 61 168 1.0 7.0 0.00 0.00 0.00 97 1008.4
20260507140444 61 87 1.0 7.0 0.00 0.00 0.00 97 1008.4
20260507140339 61 58 1.0 7.0 0.00 0.00 0.00 97 1008.5
20260507140241 61 96 1.0 7.0 0.00 0.00 0.00 97 1008.5
20260507140135 61 44 0.0 4.0 0.00 0.00 0.00 97 1008.6
20260507140031 61 109 0.0 4.0 0.00 0.00 0.00 97 1008.6
20260507135932 61 42 1.0 5.0 0.00 0.00 0.00 97 1008.6
20260507135831 61 87 0.0 5.0 0.00 0.00 0.00 97 1008.6
20260507135732 61 66 0.0 5.0 0.00 0.00 0.00 97 1008.6
20260507135632 61 8 0.0 5.0 0.00 0.00 0.00 97 1008.6
20260507135533 61 326 0.0 5.0 0.00 0.00 0.00 97 1008.7
20260507135431 61 69 0.0 5.0 0.00 0.00 0.00 97 1008.6
20260507135331 62 68 0.0 5.0 0.00 0.00 0.00 97 1008.6
20260507135233 61 87 0.0 5.0 0.00 0.00 0.00 97 1008.6
20260507135131 62 45 0.0 5.0 0.00 0.00 0.00 97 1008.6
20260507135031 62 72 0.0 5.0 0.00 0.00 0.00 97 1008.5
20260507134932 61 107 0.0 1.0 0.00 0.00 0.00 97 1008.5
20260507134832 62 83 0.0 3.0 0.00 0.00 0.00 97 1008.6
20260507134734 62 28 0.0 3.0 0.00 0.00 0.00 97 1008.5
20260507134634 62 28 0.0 3.0 0.00 0.00 0.00 97 1008.5
20260507134532 62 28 0.0 3.0 0.00 0.00 0.00 97 1008.5
20260507134433 62 96 0.0 3.0 0.00 0.00 0.00 97 1008.5
20260507134331 62 45 0.0 3.0 0.00 0.00 0.00 97 1008.5
20260507134232 62 42 0.0 3.0 0.00 0.00 0.00 97 1008.5
20260507134131 62 75 0.0 3.0 0.00 0.00 0.00 97 1008.6
20260507134032 62 92 0.0 3.0 0.00 0.00 0.00 97 1008.6
20260507133931 62 90 0.0 3.0 0.00 0.00 0.00 97 1008.6
20260507133831 62 92 0.0 2.0 0.00 0.00 0.00 97 1008.6
20260507133730 62 338 0.0 2.0 0.00 0.00 0.00 97 1008.6
20260507133633 62 336 0.0 4.0 0.00 0.00 0.00 97 1008.7
20260507133532 62 334 0.0 4.0 0.00 0.00 0.00 97 1008.7
20260507133432 62 358 0.0 4.0 0.00 0.00 0.00 97 1008.8
20260507133333 62 8 0.0 4.0 0.00 0.00 0.00 97 1008.8
20260507133220 62 10 0.0 4.0 0.00 0.00 0.00 97 1008.8
20260507133120 62 3 1.0 4.0 0.00 0.00 0.00 97 1008.8
20260507133016 62 37 0.0 4.0 0.00 0.00 0.00 97 1008.7
20260507132910 62 37 1.0 4.0 0.00 0.00 0.00 97 1008.7
20260507132807 62 65 1.0 4.0 0.00 0.00 0.00 97 1008.8
20260507132703 62 96 0.0 3.0 0.00 0.00 0.00 97 1008.6
20260507132601 62 96 0.0 3.0 0.00 0.00 0.00 97 1008.7
20260507132502 62 96 1.0 3.0 0.00 0.00 0.00 97 1008.7
20260507132404 62 106 0.0 3.0 0.00 0.00 0.00 97 1008.8
20260507132306 62 111 0.0 3.0 0.00 0.00 0.00 97 1008.7
20260507132203 62 210 0.0 3.0 0.00 0.00 0.00 97 1008.6
20260507132103 62 82 0.0 4.0 0.00 0.00 0.00 97 1008.6
20260507132003 62 80 1.0 4.0 0.00 0.00 0.00 97 1008.5
20260507131902 62 80 1.0 4.0 0.00 0.00 0.00 97 1008.5
20260507131802 62 44 1.0 4.0 0.00 0.00 0.00 97 1008.4
20260507131702 62 41 1.0 4.0 0.00 0.00 0.00 97 1008.3
20260507131602 62 76 1.0 4.0 0.00 0.00 0.00 97 1008.3
20260507131503 62 227 0.0 4.0 0.00 0.00 0.00 97 1008.4
20260507131404 62 227 1.0 4.0 0.00 0.00 0.00 97 1008.4
20260507131303 62 227 1.0 4.0 0.00 0.00 0.00 97 1008.4
20260507131203 62 154 0.0 4.0 0.00 0.00 0.00 97 1008.4
20260507131103 62 120 0.0 4.0 0.00 0.00 0.00 97 1008.4
20260507131003 62 183 0.0 4.0 0.00 0.00 0.00 97 1008.4
20260507130903 62 48 0.0 4.0 0.00 0.00 0.00 97 1008.4
20260507130803 62 78 0.0 4.0 0.00 0.00 0.00 97 1008.4
20260507130658 62 183 0.0 2.0 0.00 0.00 0.00 97 1008.5
20260507130557 62 183 0.0 3.0 0.00 0.00 0.00 97 1008.6
20260507130458 62 87 0.0 3.0 0.00 0.00 0.00 97 1008.6
20260507130400 62 120 0.0 3.0 0.00 0.00 0.00 97 1008.6
20260507130258 62 125 0.0 3.0 0.00 0.00 0.00 97 1008.6
20260507130159 62 206 0.0 4.0 0.00 0.00 0.00 97 1008.5
20260507130058 62 258 0.0 4.0 0.00 0.00 0.00 97 1008.5
20260507125958 62 130 0.0 4.0 0.00 0.00 0.00 97 1008.6
20260507125859 62 65 1.0 4.0 0.00 0.00 0.00 97 1008.5
20260507125759 62 65 2.0 4.0 0.00 0.00 0.00 97 1008.6
20260507125657 62 65 1.0 4.0 0.00 0.00 0.00 97 1008.6
20260507125558 62 61 0.0 4.0 0.00 0.00 0.00 97 1008.7
20260507125457 62 0 1.0 6.0 0.00 0.00 0.00 97 1008.5
20260507125358 62 224 2.0 6.0 0.00 0.00 0.00 97 1008.5
20260507125258 62 87 1.0 6.0 0.00 0.00 0.00 97 1008.5
20260507125158 62 79 0.0 6.0 0.00 0.00 0.00 97 1008.4
20260507125057 62 79 0.0 6.0 0.00 0.00 0.00 97 1008.4
20260507124959 62 78 0.0 6.0 0.00 0.00 0.00 96 1008.4
20260507124857 62 79 0.0 6.0 0.00 0.00 0.00 96 1008.5
20260507124759 62 78 1.0 6.0 0.00 0.00 0.00 96 1008.5
20260507124705 62 68 2.0 6.0 0.00 0.00 0.00 96 1008.5
20260507124559 62 86 2.0 6.0 0.00 0.00 0.00 97 1008.5
20260507124457 62 34 0.0 4.0 0.00 0.00 0.00 96 1008.6
20260507124358 62 17 0.0 4.0 0.00 0.00 0.00 96 1008.6
20260507124258 62 100 0.0 4.0 0.00 0.00 0.00 97 1008.6
20260507124157 62 100 0.0 4.0 0.00 0.00 0.00 96 1008.7
20260507124057 62 99 0.0 4.0 0.00 0.00 0.00 96 1008.7
20260507123957 62 99 0.0 4.0 0.00 0.00 0.00 96 1008.7
20260507123857 62 96 0.0 4.0 0.00 0.00 0.00 96 1008.6
20260507123800 62 96 1.0 4.0 0.00 0.00 0.00 96 1008.6
20260507123656 62 94 1.0 4.0 0.00 0.00 0.00 97 1008.4
20260507123554 62 97 1.0 4.0 0.00 0.00 0.00 97 1008.5
20260507123452 62 96 1.0 4.0 0.00 0.00 0.00 97 1008.5
20260507123346 62 117 0.0 4.0 0.00 0.00 0.00 97 1008.4
20260507123245 62 240 0.0 4.0 0.00 0.00 0.00 97 1008.5
20260507123144 62 117 0.0 4.0 0.00 0.00 0.00 96 1008.6
20260507123045 62 117 0.0 4.0 0.00 0.00 0.00 96 1008.5
20260507122941 62 118 1.0 5.0 0.00 0.00 0.00 97 1008.5
20260507122836 62 52 1.0 5.0 0.00 0.00 0.00 97 1008.5
20260507122730 62 71 1.0 5.0 0.00 0.00 0.00 97 1008.4
20260507122630 62 63 0.0 5.0 0.00 0.00 0.00 96 1008.3
20260507122537 62 97 0.0 5.0 0.00 0.00 0.00 97 1008.3
20260507122433 62 114 0.0 5.0 0.00 0.00 0.00 97 1008.1
20260507122335 62 114 1.0 5.0 0.00 0.00 0.00 97 1008.2
20260507122232 62 114 2.0 5.0 0.00 0.00 0.00 97 1008.1
20260507122132 63 124 2.0 5.0 0.00 0.00 0.00 97 1008.1
20260507122032 63 45 1.0 5.0 0.00 0.00 0.00 97 1008.0
20260507121928 63 230 0.0 5.0 0.00 0.00 0.00 97 1008.1
20260507121820 63 107 0.0 5.0 0.00 0.00 0.00 97 1008.0
20260507121715 63 107 1.0 5.0 0.00 0.00 0.00 97 1007.9
20260507121617 63 75 2.0 5.0 0.00 0.00 0.00 97 1007.8
20260507121516 63 79 1.0 5.0 0.00 0.00 0.00 97 1007.7
20260507121413 63 147 0.0 5.0 0.00 0.00 0.00 97 1007.6
20260507121308 63 147 0.0 5.0 0.00 0.00 0.00 97 1007.6
20260507121207 63 147 0.0 5.0 0.00 0.00 0.00 97 1007.5
20260507121103 63 99 1.0 5.0 0.00 0.00 0.00 97 1007.5
20260507121006 63 102 2.0 5.0 0.00 0.00 0.00 97 1007.5
20260507120904 63 79 1.0 5.0 0.00 0.00 0.00 97 1007.5
20260507120803 63 73 2.0 5.0 0.00 0.00 0.00 97 1007.4
20260507120703 63 71 0.0 4.0 0.00 0.00 0.00 97 1007.4
20260507120603 63 42 0.0 4.0 0.00 0.00 0.00 97 1007.3
20260507120504 63 41 0.0 4.0 0.00 0.00 0.00 97 1007.2
20260507120403 63 38 1.0 4.0 0.00 0.00 0.00 97 1007.2
20260507120305 63 32 1.0 4.0 0.00 0.00 0.00 97 1007.1
20260507120204 63 75 0.0 4.0 0.00 0.00 0.00 97 1007.0
20260507120113 63 83 1.0 4.0 0.00 0.00 0.00 97 1007.0
20260507120005 63 83 1.0 4.0 0.00 0.00 0.00 97 1007.0
20260507115902 63 107 1.0 4.0 0.00 0.00 0.00 97 1007.1
20260507115804 63 96 1.0 3.0 0.00 0.00 0.00 97 1007.1
20260507115704 63 96 1.0 3.0 0.00 0.00 0.00 97 1007.2
20260507115604 63 27 0.0 2.0 0.00 0.00 0.00 97 1007.2
20260507115505 63 193 0.0 4.0 0.00 0.00 0.00 97 1007.3
20260507115404 63 193 0.0 4.0 0.00 0.00 0.00 97 1007.3
20260507115307 63 192 0.0 4.0 0.00 0.00 0.00 97 1007.2
20260507115204 63 189 0.0 4.0 0.00 0.00 0.00 97 1007.2
20260507115104 63 110 0.0 4.0 0.00 0.00 0.00 97 1007.1
20260507115004 63 97 0.0 4.0 0.00 0.00 0.00 97 1007.0
20260507114903 63 97 0.0 4.0 0.00 0.00 0.00 97 1006.9
20260507114804 63 68 0.0 4.0 0.00 0.00 0.00 97 1006.9
20260507114705 63 68 1.0 5.0 0.00 0.00 0.00 97 1006.8
20260507114603 63 66 2.0 5.0 0.00 0.00 0.00 97 1006.9
20260507114504 63 54 1.0 5.0 0.00 0.00 0.00 97 1006.9
20260507114403 63 42 0.0 5.0 0.00 0.00 0.00 97 1006.8
20260507114302 63 42 0.0 5.0 0.00 0.00 0.00 97 1006.8
20260507114202 63 158 2.0 5.0 0.00 0.00 0.00 97 1006.8
20260507114103 63 151 2.0 5.0 0.00 0.00 0.00 97 1006.8
20260507114003 63 341 1.0 5.0 0.00 0.00 0.00 97 1006.9
20260507113856 63 212 1.0 5.0 0.00 0.00 0.00 97 1006.9
20260507113755 63 104 1.0 5.0 0.00 0.00 0.00 97 1006.9
20260507113701 63 78 1.0 5.0 0.00 0.00 0.00 97 1007.0
20260507113555 63 69 2.0 5.0 0.00 0.00 0.00 97 1007.1
20260507113455 63 79 1.0 5.0 0.00 0.00 0.00 97 1007.2
20260507113357 63 329 0.0 5.0 0.00 0.00 0.00 97 1007.2
20260507113256 63 63 1.0 5.0 0.00 0.00 0.00 97 1007.3
20260507113156 63 86 2.0 5.0 0.00 0.00 0.00 97 1007.2
20260507113057 64 71 2.0 5.0 0.00 0.00 0.00 97 1007.2
20260507112955 64 96 2.0 5.0 0.00 0.00 0.00 97 1007.2
20260507112855 64 193 1.0 5.0 0.00 0.00 0.00 97 1007.2
20260507112756 64 193 1.0 5.0 0.00 0.00 0.00 97 1007.1
20260507112655 64 186 1.0 5.0 0.00 0.00 0.00 97 1007.1
20260507112555 64 247 1.0 5.0 0.00 0.00 0.00 97 1007.2
20260507112457 64 78 0.0 2.0 0.00 0.00 0.00 97 1007.2
20260507112357 64 4 0.0 2.0 0.00 0.00 0.00 97 1007.2
20260507112257 64 0 0.0 2.0 0.00 0.00 0.00 97 1007.2
20260507112156 64 264 0.0 0.0 0.00 0.00 0.00 97 1007.2
20260507112055 64 0 0.0 0.0 0.00 0.00 0.00 97 1007.2
20260507111956 64 10 0.0 0.0 0.00 0.00 0.00 97 1007.1
20260507111855 64 111 0.0 0.0 0.00 0.00 0.00 97 1007.1
20260507111756 64 0 0.0 0.0 0.00 0.00 0.00 97 1007.1
20260507111655 64 164 0.0 0.0 0.00 0.00 0.00 97 1007.0
20260507111555 64 75 0.0 0.0 0.00 0.00 0.00 97 1006.9
20260507111454 64 75 0.0 1.0 0.00 0.00 0.00 97 1006.8
20260507111355 64 75 0.0 1.0 0.00 0.00 0.00 97 1006.7
20260507111255 64 173 0.0 1.0 0.00 0.00 0.00 97 1006.7
20260507111156 64 107 0.0 1.0 0.00 0.00 0.00 97 1006.7
20260507111055 64 106 0.0 1.0 0.00 0.00 0.00 97 1006.6
20260507110955 64 104 0.0 1.0 0.00 0.00 0.00 97 1006.7
20260507110855 64 99 0.0 1.0 0.00 0.00 0.00 97 1006.7
20260507110755 64 100 0.0 1.0 0.00 0.00 0.00 97 1006.7
20260507110655 64 59 0.0 1.0 0.00 0.00 0.00 97 1006.8
20260507110555 64 61 0.0 1.0 0.00 0.00 0.00 97 1006.8
20260507110455 64 134 0.0 0.0 0.00 0.00 0.00 97 1006.9
20260507110356 64 96 0.0 2.0 0.00 0.00 0.00 97 1006.9
20260507110256 64 96 0.0 2.0 0.00 0.00 0.00 97 1006.8
20260507110155 64 66 0.0 2.0 0.00 0.00 0.00 97 1006.8
20260507110055 64 94 0.0 2.0 0.00 0.00 0.00 97 1006.7
20260507105956 64 94 0.0 2.0 0.00 0.00 0.00 97 1006.6
20260507105856 64 94 0.0 2.0 0.00 0.00 0.00 97 1006.6
20260507105754 64 94 0.0 2.0 0.00 0.00 0.00 97 1006.6
20260507105656 64 94 0.0 2.0 0.00 0.00 0.00 97 1006.5
20260507105555 64 94 0.0 2.0 0.00 0.00 0.00 97 1006.6
20260507105455 64 94 1.0 2.0 0.00 0.00 0.00 97 1006.5
20260507105355 64 92 0.0 2.0 0.00 0.00 0.00 97 1006.6
20260507105254 64 78 0.0 2.0 0.00 0.00 0.00 97 1006.5
20260507105156 64 76 0.0 2.0 0.00 0.00 0.00 97 1006.4
20260507105054 64 78 0.0 2.0 0.00 0.00 0.00 97 1006.4
20260507104956 64 75 0.0 2.0 0.00 0.00 0.00 97 1006.4
20260507104856 64 73 0.0 2.0 0.00 0.00 0.00 97 1006.4
20260507104756 64 73 0.0 2.0 0.00 0.00 0.00 97 1006.5
20260507104656 64 73 0.0 2.0 0.00 0.00 0.00 97 1006.6
20260507104556 64 338 0.0 2.0 0.00 0.00 0.00 97 1006.6
20260507104458 64 338 0.0 2.0 0.00 0.00 0.00 97 1006.7
20260507104354 64 324 0.0 2.0 0.00 0.00 0.00 97 1006.6
20260507104256 64 324 0.0 2.0 0.00 0.00 0.00 97 1006.6
20260507104154 64 324 0.0 2.0 0.00 0.00 0.00 97 1006.6
20260507104058 64 59 0.0 2.0 0.00 0.00 0.00 97 1006.5
20260507103956 64 51 0.0 3.0 0.00 0.00 0.00 97 1006.4
20260507103854 64 51 0.0 3.0 0.00 0.00 0.00 97 1006.3
20260507103756 64 52 0.0 4.0 0.00 0.00 0.00 97 1006.3
20260507103655 64 4 0.0 4.0 0.00 0.00 0.00 97 1006.3
20260507103555 64 4 0.0 4.0 0.00 0.00 0.00 97 1006.3
20260507103456 64 3 0.0 4.0 0.00 0.00 0.00 97 1006.3
20260507103354 64 3 0.0 4.0 0.00 0.00 0.00 97 1006.3
20260507103256 64 79 0.0 4.0 0.00 0.00 0.00 97 1006.4
20260507103156 64 85 1.0 4.0 0.00 0.00 0.00 97 1006.2
20260507103056 64 86 1.0 4.0 0.00 0.00 0.00 97 1006.2
20260507102954 64 82 1.0 4.0 0.00 0.00 0.00 97 1006.2
20260507102855 64 85 1.0 4.0 0.00 0.00 0.00 97 1006.2
20260507102756 64 90 0.0 3.0 0.00 0.00 0.00 97 1006.3
20260507102654 64 89 0.0 2.0 0.00 0.00 0.00 97 1006.3
20260507102555 64 89 0.0 2.0 0.00 0.00 0.00 97 1006.3
20260507102455 64 89 0.0 2.0 0.00 0.00 0.00 97 1006.4
20260507102354 64 92 0.0 3.0 0.00 0.00 0.00 97 1006.4
20260507102257 64 92 0.0 3.0 0.00 0.00 0.00 97 1006.5
20260507102156 64 94 0.0 3.0 0.00 0.00 0.00 97 1006.4
20260507102054 64 94 0.0 3.0 0.00 0.00 0.00 97 1006.4
20260507101955 64 97 0.0 3.0 0.00 0.00 0.00 97 1006.4
20260507101853 64 121 0.0 3.0 0.00 0.00 0.00 97 1006.4
20260507101755 64 121 0.0 3.0 0.00 0.00 0.00 97 1006.3
20260507101656 64 121 0.0 3.0 0.00 0.00 0.00 97 1006.4
20260507101555 64 121 1.0 3.0 0.00 0.00 0.00 97 1006.3
20260507101453 64 121 1.0 3.0 0.00 0.00 0.00 97 1006.3
20260507101354 64 63 0.0 0.0 0.00 0.00 0.00 97 1006.3
20260507101255 64 63 0.0 0.0 0.00 0.00 0.00 97 1006.3
20260507101154 64 63 0.0 0.0 0.00 0.00 0.00 97 1006.2
20260507101053 64 63 0.0 0.0 0.00 0.00 0.00 97 1006.2
20260507100954 64 63 0.0 0.0 0.00 0.00 0.00 97 1006.1
20260507100855 64 63 0.0 0.0 0.00 0.00 0.00 97 1006.1
20260507100755 64 63 0.0 0.0 0.00 0.00 0.00 97 1006.0
20260507100653 64 63 0.0 0.0 0.00 0.00 0.00 97 1005.9
20260507100554 64 63 0.0 0.0 0.00 0.00 0.00 97 1005.8
20260507100453 64 63 0.0 0.0 0.00 0.00 0.00 97 1005.8
20260507100355 64 63 0.0 0.0 0.00 0.00 0.00 97 1005.8
20260507100254 64 63 0.0 0.0 0.00 0.00 0.00 97 1005.8
20260507100155 64 63 0.0 0.0 0.00 0.00 0.00 97 1006.0
20260507100055 64 63 0.0 0.0 0.00 0.00 0.00 97 1006.0
20260507095954 64 63 0.0 0.0 0.00 0.00 0.00 97 1006.0
20260507095853 64 63 0.0 0.0 0.00 0.00 0.00 97 1006.1
20260507095753 64 63 0.0 0.0 0.00 0.00 0.00 97 1006.1
20260507095656 64 63 0.0 0.0 0.00 0.00 0.00 97 1006.1
20260507095554 64 63 0.0 1.0 0.00 0.00 0.00 97 1006.1
20260507095455 64 63 0.0 5.0 0.00 0.00 0.00 97 1006.1
20260507095355 64 63 0.0 5.0 0.00 0.00 0.00 97 1006.0
20260507095256 64 63 0.0 5.0 0.00 0.00 0.00 97 1006.0
20260507095154 64 63 0.0 5.0 0.00 0.00 0.00 97 1005.9
20260507095054 64 63 0.0 5.0 0.00 0.00 0.00 97 1005.9
20260507094953 64 63 0.0 5.0 0.00 0.00 0.00 97 1005.8
20260507094854 64 63 0.0 5.0 0.00 0.00 0.00 97 1005.7
20260507094754 64 63 0.0 5.0 0.00 0.00 0.00 97 1005.5
20260507094654 64 63 1.0 5.0 0.00 0.00 0.00 97 1005.5
20260507094553 64 61 1.0 5.0 0.00 0.00 0.00 97 1005.5
20260507094458 64 41 0.0 0.0 0.00 0.00 0.00 97 1005.7
20260507094353 64 82 0.0 0.0 0.00 0.00 0.00 97 1005.8
20260507094253 64 82 0.0 0.0 0.00 0.00 0.00 97 1005.8
20260507094154 64 82 0.0 1.0 0.00 0.00 0.00 97 1005.8
20260507094052 64 82 0.0 1.0 0.00 0.00 0.00 97 1005.6
20260507093954 64 82 0.0 1.0 0.00 0.00 0.00 97 1005.5
20260507093853 64 83 0.0 1.0 0.00 0.00 0.00 97 1005.4
20260507093754 64 83 0.0 1.0 0.00 0.00 0.00 97 1005.4
20260507093659 64 83 0.0 1.0 0.00 0.00 0.00 97 1005.4
20260507093553 64 83 0.0 1.0 0.00 0.00 0.00 97 1005.5
20260507093452 64 83 0.0 1.0 0.00 0.00 0.00 97 1005.5
20260507093354 64 83 0.0 1.0 0.00 0.00 0.00 97 1005.6
20260507093255 64 83 0.0 1.0 0.00 0.00 0.00 97 1005.6
20260507093155 64 0 0.0 0.0 0.00 0.00 0.00 97 1005.7
20260507093054 64 0 0.0 0.0 0.00 0.00 0.00 97 1005.6
20260507092954 64 0 0.0 0.0 0.00 0.00 0.00 97 1005.5
20260507092854 64 0 0.0 0.0 0.00 0.00 0.00 97 1005.4
20260507092753 64 0 0.0 0.0 0.00 0.00 0.00 97 1005.3
20260507092653 64 358 0.0 0.0 0.00 0.00 0.00 97 1005.2
20260507092552 64 358 0.0 0.0 0.00 0.00 0.00 97 1005.2
20260507092453 64 358 0.0 0.0 0.00 0.00 0.00 97 1005.1
20260507092354 64 358 0.0 0.0 0.00 0.00 0.00 97 1005.3
20260507092254 64 85 0.0 0.0 0.00 0.00 0.00 97 1005.3
20260507092155 64 83 0.0 5.0 0.00 0.00 0.00 97 1005.3
20260507092054 64 83 0.0 5.0 0.00 0.00 0.00 97 1005.4
20260507091953 64 83 0.0 5.0 0.00 0.00 0.00 97 1005.4
20260507091853 64 83 0.0 5.0 0.00 0.00 0.00 97 1005.4
20260507091753 64 83 0.0 5.0 0.00 0.00 0.00 97 1005.4
20260507091654 64 85 0.0 5.0 0.00 0.00 0.00 97 1005.3
20260507091554 64 83 0.0 5.0 0.00 0.00 0.00 97 1005.4
20260507091453 64 83 0.0 5.0 0.00 0.00 0.00 97 1005.4
20260507091352 64 82 1.0 5.0 0.00 0.00 0.00 97 1005.4
20260507091254 64 78 1.0 5.0 0.00 0.00 0.00 97 1005.4
20260507091152 64 85 0.0 3.0 0.00 0.00 0.00 97 1005.4
20260507091054 64 85 0.0 3.0 0.00 0.00 0.00 97 1005.4
20260507090954 64 85 0.0 3.0 0.00 0.00 0.00 97 1005.2
20260507090854 64 79 0.0 3.0 0.00 0.00 0.00 97 1005.2
20260507090753 64 79 0.0 3.0 0.00 0.00 0.00 97 1005.3
20260507090654 64 79 0.0 3.0 0.00 0.00 0.00 97 1005.2
20260507090552 64 79 0.0 3.0 0.00 0.00 0.00 97 1005.3
20260507090454 64 79 1.0 3.0 0.00 0.00 0.00 97 1005.3
20260507090353 64 51 0.0 3.0 0.00 0.00 0.00 97 1005.3
20260507090252 64 51 0.0 3.0 0.00 0.00 0.00 97 1005.4
20260507090153 64 51 0.0 3.0 0.00 0.00 0.00 97 1005.4
20260507090052 64 51 0.0 4.0 0.00 0.00 0.00 97 1005.5
20260507085953 64 51 0.0 5.0 0.00 0.00 0.00 97 1005.5
20260507085852 64 51 1.0 5.0 0.00 0.00 0.00 97 1005.3
20260507085753 64 51 1.0 5.0 0.00 0.00 0.00 97 1005.3
20260507085654 64 76 0.0 5.0 0.00 0.00 0.00 96 1005.2
20260507085552 64 80 0.0 5.0 0.00 0.00 0.00 96 1005.1
20260507085453 64 59 0.0 5.0 0.00 0.00 0.00 96 1005.2
20260507085353 64 58 0.0 5.0 0.00 0.00 0.00 96 1005.2
20260507085252 64 59 1.0 5.0 0.00 0.00 0.00 96 1005.2
20260507085156 64 76 2.0 5.0 0.00 0.00 0.00 96 1005.2
20260507085049 64 82 0.0 4.0 0.00 0.00 0.00 96 1005.2
20260507084947 64 85 1.0 4.0 0.00 0.00 0.00 96 1005.4
20260507084844 64 85 1.0 4.0 0.00 0.00 0.00 96 1005.4
20260507084738 64 61 0.0 3.0 0.00 0.00 0.00 96 1005.5
20260507084632 64 30 0.0 3.0 0.00 0.00 0.00 96 1005.6
20260507084532 64 30 0.0 3.0 0.00 0.00 0.00 96 1005.6
20260507084433 64 30 0.0 3.0 0.00 0.00 0.00 96 1005.6
20260507084332 64 80 0.0 3.0 0.00 0.00 0.00 96 1005.7
20260507084232 64 80 0.0 3.0 0.00 0.00 0.00 96 1005.6
20260507084130 64 72 1.0 3.0 0.00 0.00 0.00 96 1005.7
20260507084031 64 72 1.0 3.0 0.00 0.00 0.00 96 1005.6
20260507083927 64 65 0.0 3.0 0.00 0.00 0.00 96 1005.6
20260507083825 64 63 0.0 3.0 0.00 0.00 0.00 96 1005.6
20260507083721 64 63 0.0 3.0 0.00 0.00 0.00 96 1005.5
20260507083618 64 62 0.0 3.0 0.00 0.00 0.00 96 1005.6
20260507083514 64 62 0.0 3.0 0.00 0.00 0.00 96 1005.5
20260507083407 64 63 0.0 5.0 0.00 0.00 0.00 96 1005.6
20260507083304 64 63 0.0 5.0 0.00 0.00 0.00 96 1005.5
20260507083203 64 336 0.0 5.0 0.00 0.00 0.00 96 1005.6
20260507083102 64 333 1.0 5.0 0.00 0.00 0.00 96 1005.5
20260507083002 64 333 1.0 5.0 0.00 0.00 0.00 96 1005.4
20260507082902 64 58 0.0 5.0 0.00 0.00 0.00 96 1005.4
20260507082804 64 83 0.0 5.0 0.00 0.00 0.00 96 1005.3
20260507082703 64 83 0.0 5.0 0.00 0.00 0.00 96 1005.2
20260507082604 64 82 1.0 5.0 0.00 0.00 0.00 96 1005.2
20260507082503 64 82 1.0 5.0 0.00 0.00 0.00 96 1005.3
20260507082404 64 82 1.0 4.0 0.00 0.00 0.00 96 1005.3
20260507082306 64 82 1.0 4.0 0.00 0.00 0.00 96 1005.4
20260507082204 64 78 0.0 4.0 0.00 0.00 0.00 96 1005.5
20260507082102 64 117 0.0 4.0 0.00 0.00 0.00 96 1005.6
20260507082004 64 117 0.0 6.0 0.00 0.00 0.00 96 1005.5
20260507081902 64 96 1.0 6.0 0.00 0.00 0.00 96 1005.6
20260507081802 64 97 1.0 6.0 0.00 0.00 0.00 96 1005.5
20260507081708 64 85 0.0 6.0 0.00 0.00 0.00 96 1005.6
20260507081603 64 193 0.0 6.0 0.00 0.00 0.00 96 1005.6
20260507081504 64 264 0.0 6.0 0.00 0.00 0.00 96 1005.6
20260507081404 64 25 0.0 6.0 0.00 0.00 0.00 96 1005.5
20260507081303 64 24 1.0 6.0 0.00 0.00 0.00 96 1005.5
20260507081205 64 24 2.0 6.0 0.00 0.00 0.00 95 1005.5
20260507081103 64 69 2.0 6.0 0.00 0.00 0.00 95 1005.4
20260507081003 64 86 0.0 5.0 0.00 0.00 0.00 95 1005.3
20260507080904 64 75 0.0 5.0 0.00 0.00 0.00 95 1005.2
20260507080802 64 75 0.0 5.0 0.00 0.00 0.00 95 1005.0
20260507080702 64 116 1.0 5.0 0.00 0.00 0.00 95 1005.0
20260507080601 64 116 3.0 5.0 0.00 0.00 0.00 95 1005.0
20260507080503 64 62 2.0 5.0 0.00 0.00 0.00 95 1005.0
20260507080404 64 80 2.0 4.0 0.00 0.00 0.00 95 1005.2
20260507080305 64 94 1.0 3.0 0.00 0.00 0.00 95 1005.2
20260507080202 64 107 0.0 3.0 0.00 0.00 0.00 95 1005.3
20260507080103 64 106 0.0 3.0 0.00 0.00 0.00 95 1005.3
20260507080004 64 106 1.0 3.0 0.00 0.00 0.00 95 1005.4
20260507075857 64 106 1.0 3.0 0.00 0.00 0.00 95 1005.6
20260507075752 64 80 0.0 3.0 0.00 0.00 0.00 95 1005.7
20260507075650 64 87 0.0 3.0 0.00 0.00 0.00 95 1005.8
20260507075552 64 87 0.0 5.0 0.00 0.00 0.00 95 1005.8
20260507075451 64 48 0.0 5.0 0.00 0.00 0.00 95 1005.8
20260507075350 64 48 1.0 5.0 0.00 0.00 0.00 95 1005.8
20260507075250 64 158 0.0 5.0 0.00 0.00 0.00 95 1005.8
20260507075152 64 71 0.0 5.0 0.00 0.00 0.00 95 1005.7
20260507075053 64 68 1.0 5.0 0.00 0.00 0.00 95 1005.6
20260507074953 64 106 0.0 5.0 0.00 0.00 0.00 95 1005.5
20260507074852 64 78 0.0 5.0 0.00 0.00 0.00 95 1005.4
20260507074752 64 78 2.0 5.0 0.00 0.00 0.00 95 1005.4
20260507074650 64 78 2.0 5.0 0.00 0.00 0.00 95 1005.5
20260507074553 64 92 1.0 3.0 0.00 0.00 0.00 95 1005.4
20260507074450 64 109 1.0 3.0 0.00 0.00 0.00 95 1005.5
20260507074350 64 109 1.0 3.0 0.00 0.00 0.00 95 1005.5
20260507074251 64 92 0.0 3.0 0.00 0.00 0.00 95 1005.7
20260507074150 64 93 0.0 3.0 0.00 0.00 0.00 95 1005.9
20260507074051 64 93 0.0 3.0 0.00 0.00 0.00 95 1005.7
20260507073952 64 92 1.0 3.0 0.00 0.00 0.00 95 1005.6
20260507073851 64 89 1.0 3.0 0.00 0.00 0.00 95 1005.6
20260507073750 64 90 0.0 3.0 0.00 0.00 0.00 95 1005.6
20260507073650 64 90 0.0 3.0 0.00 0.00 0.00 95 1005.7
20260507073551 64 90 0.0 7.0 0.00 0.00 0.00 95 1005.9
20260507073450 64 89 1.0 7.0 0.00 0.00 0.00 95 1005.9
20260507073352 64 89 1.0 7.0 0.00 0.00 0.00 95 1006.0
20260507073251 64 23 0.0 7.0 0.00 0.00 0.00 95 1006.0
20260507073152 64 100 1.0 7.0 0.00 0.00 0.00 95 1005.9
20260507073050 64 100 1.0 7.0 0.00 0.00 0.00 95 1005.9
20260507072950 64 72 1.0 7.0 0.00 0.00 0.00 95 1005.8
20260507072850 64 69 1.0 7.0 0.00 0.00 0.00 95 1005.9
20260507072750 64 37 2.0 7.0 0.00 0.00 0.00 95 1005.9
20260507072651 64 24 2.0 7.0 0.00 0.00 0.00 95 1006.0
20260507072551 64 94 1.0 4.0 0.00 0.00 0.00 95 1006.1
20260507072450 64 168 0.0 4.0 0.00 0.00 0.00 95 1006.1
20260507072351 65 168 1.0 5.0 0.00 0.00 0.00 95 1006.1
20260507072251 65 168 1.0 5.0 0.00 0.00 0.00 95 1006.0
20260507072150 65 71 0.0 5.0 0.00 0.00 0.00 94 1006.0
20260507072051 65 92 1.0 5.0 0.00 0.00 0.00 94 1005.9
20260507071949 65 92 1.0 5.0 0.00 0.00 0.00 94 1005.8
20260507071851 65 97 1.0 5.0 0.00 0.00 0.00 94 1005.8
20260507071750 65 100 1.0 6.0 0.00 0.00 0.00 94 1005.7
20260507071650 65 100 1.0 6.0 0.00 0.00 0.00 94 1005.7
20260507071550 65 79 1.0 6.0 0.00 0.00 0.00 94 1005.8
20260507071449 65 79 1.0 6.0 0.00 0.00 0.00 94 1005.9
20260507071351 65 63 0.0 6.0 0.00 0.00 0.00 94 1005.9
20260507071251 65 56 1.0 6.0 0.00 0.00 0.00 94 1005.9
20260507071149 65 56 2.0 6.0 0.00 0.00 0.00 94 1005.8
20260507071049 65 82 2.0 6.0 0.00 0.00 0.00 94 1005.9
20260507070949 65 221 2.0 6.0 0.00 0.00 0.00 94 1005.7
20260507070850 65 86 1.0 6.0 0.00 0.00 0.00 94 1005.6
20260507070750 65 314 0.0 6.0 0.00 0.00 0.00 94 1005.6
20260507070650 65 125 2.0 6.0 0.00 0.00 0.00 94 1005.7
20260507070549 65 42 1.0 6.0 0.00 0.00 0.00 94 1005.8
20260507070450 65 90 1.0 4.0 0.00 0.00 0.00 94 1005.8
20260507070349 65 90 1.0 4.0 0.00 0.00 0.00 94 1005.7
20260507070251 65 100 1.0 4.0 0.00 0.00 0.00 94 1005.8
20260507070147 65 96 0.0 4.0 0.00 0.00 0.00 94 1005.9
20260507070032 65 96 0.0 4.0 0.00 0.00 0.00 94 1006.0
20260507065932 65 96 1.0 4.0 0.00 0.00 0.00 94 1006.1
20260507065830 65 102 1.0 4.0 0.00 0.00 0.00 94 1006.0
20260507065729 65 102 2.0 4.0 0.00 0.00 0.00 94 1006.2
20260507065625 65 59 2.0 4.0 0.00 0.00 0.00 94 1006.2
20260507065521 65 164 0.0 3.0 0.00 0.00 0.00 94 1006.3
20260507065418 65 159 0.0 3.0 0.00 0.00 0.00 94 1006.3
20260507065317 65 345 0.0 3.0 0.00 0.00 0.00 94 1006.3
20260507065213 65 345 0.0 3.0 0.00 0.00 0.00 94 1006.2
20260507065112 65 345 1.0 3.0 0.00 0.00 0.00 94 1006.2
20260507065005 65 52 0.0 2.0 0.00 0.00 0.00 94 1006.1
20260507064904 65 80 0.0 2.0 0.00 0.00 0.00 94 1006.1
20260507064804 65 79 0.0 2.0 0.00 0.00 0.00 94 1006.2
20260507064701 65 83 0.0 2.0 0.00 0.00 0.00 94 1006.2
20260507064602 65 48 0.0 2.0 0.00 0.00 0.00 94 1006.3
20260507064505 65 48 0.0 2.0 0.00 0.00 0.00 94 1006.3
20260507064404 65 353 0.0 2.0 0.00 0.00 0.00 94 1006.5
20260507064303 65 312 0.0 4.0 0.00 0.00 0.00 94 1006.4
20260507064209 65 140 0.0 4.0 0.00 0.00 0.00 94 1006.3
20260507064103 65 140 0.0 4.0 0.00 0.00 0.00 94 1006.2
20260507064002 65 141 0.0 4.0 0.00 0.00 0.00 94 1006.1
20260507063903 65 141 0.0 4.0 0.00 0.00 0.00 94 1006.0
20260507063803 65 141 0.0 4.0 0.00 0.00 0.00 94 1006.1
20260507063711 65 141 0.0 4.0 0.00 0.00 0.00 94 1006.1
20260507063602 65 141 0.0 4.0 0.00 0.00 0.00 94 1006.2
20260507063503 65 141 1.0 4.0 0.00 0.00 0.00 94 1006.2
20260507063402 65 141 1.0 4.0 0.00 0.00 0.00 94 1006.3
20260507063303 65 275 1.0 3.0 0.00 0.00 0.00 94 1006.2
20260507063203 65 97 0.0 2.0 0.00 0.00 0.00 94 1006.2
20260507063103 65 39 0.0 2.0 0.00 0.00 0.00 94 1006.1
20260507063002 65 39 0.0 2.0 0.00 0.00 0.00 94 1006.0
20260507062904 65 39 0.0 2.0 0.00 0.00 0.00 94 1006.1
20260507062803 65 120 0.0 3.0 0.00 0.00 0.00 94 1006.2
20260507062704 65 120 0.0 3.0 0.00 0.00 0.00 94 1006.3
20260507062602 65 118 0.0 3.0 0.00 0.00 0.00 94 1006.3
20260507062503 65 118 0.0 4.0 0.00 0.00 0.00 94 1006.3
20260507062403 65 71 0.0 4.0 0.00 0.00 0.00 94 1006.3
20260507062305 65 71 0.0 4.0 0.00 0.00 0.00 94 1006.5
20260507062203 65 71 0.0 4.0 0.00 0.00 0.00 94 1006.5
20260507062109 65 69 0.0 4.0 0.00 0.00 0.00 94 1006.5
20260507062003 65 69 1.0 4.0 0.00 0.00 0.00 94 1006.3
20260507061906 65 65 1.0 4.0 0.00 0.00 0.00 94 1006.2
20260507061801 65 142 1.0 4.0 0.00 0.00 0.00 94 1006.0
20260507061702 65 142 1.0 4.0 0.00 0.00 0.00 94 1005.9
20260507061603 65 141 0.0 4.0 0.00 0.00 0.00 93 1005.8
20260507061504 65 52 0.0 2.0 0.00 0.00 0.00 94 1005.9
20260507061402 65 42 0.0 2.0 0.00 0.00 0.00 94 1005.9
20260507061304 65 41 0.0 2.0 0.00 0.00 0.00 94 1006.0
20260507061202 65 35 0.0 2.0 0.00 0.00 0.00 93 1006.0
20260507061103 65 103 0.0 2.0 0.00 0.00 0.00 93 1006.0
20260507061006 65 103 0.0 2.0 0.00 0.00 0.00 93 1006.0
20260507060904 65 103 0.0 2.0 0.00 0.00 0.00 93 1006.0
20260507060802 65 107 0.0 2.0 0.00 0.00 0.00 93 1006.1
20260507060704 65 107 0.0 2.0 0.00 0.00 0.00 93 1006.1
20260507060603 65 62 0.0 2.0 0.00 0.00 0.00 93 1006.1
20260507060504 65 62 0.0 2.0 0.00 0.00 0.00 93 1006.1
20260507060403 65 130 0.0 2.0 0.00 0.00 0.00 93 1006.0
20260507060304 65 116 0.0 2.0 0.00 0.00 0.00 93 1006.1
20260507060203 65 103 0.0 3.0 0.00 0.00 0.00 93 1006.1
20260507060105 65 93 0.0 5.0 0.00 0.00 0.00 93 1006.2
20260507060005 65 93 0.0 5.0 0.00 0.00 0.00 93 1006.1
20260507055903 65 45 0.0 5.0 0.00 0.00 0.00 93 1006.2
20260507055804 65 45 0.0 5.0 0.00 0.00 0.00 93 1006.0
20260507055703 65 45 0.0 5.0 0.00 0.00 0.00 93 1006.0
20260507055604 65 45 0.0 5.0 0.00 0.00 0.00 93 1006.0
20260507055503 65 193 0.0 5.0 0.00 0.00 0.00 93 1005.9
20260507055402 65 224 1.0 5.0 0.00 0.00 0.00 93 1005.7
20260507055306 65 85 2.0 5.0 0.00 0.00 0.00 93 1005.7
20260507055205 65 79 1.0 5.0 0.00 0.00 0.00 93 1005.6
20260507055102 65 128 0.0 3.0 0.00 0.00 0.00 93 1005.5
20260507055003 65 123 0.0 3.0 0.00 0.00 0.00 93 1005.5
20260507054902 65 128 1.0 3.0 0.00 0.00 0.00 93 1005.5
20260507054802 65 130 1.0 3.0 0.00 0.00 0.00 93 1005.6
20260507054704 65 87 0.0 6.0 0.00 0.00 0.00 93 1005.6
20260507054604 65 320 1.0 6.0 0.00 0.00 0.00 93 1005.7
20260507054504 65 117 1.0 6.0 0.00 0.00 0.00 93 1005.7
20260507054402 65 87 1.0 6.0 0.00 0.00 0.00 93 1005.7
20260507054302 65 89 1.0 6.0 0.00 0.00 0.00 93 1005.7
20260507054202 65 83 0.0 6.0 0.00 0.00 0.00 93 1005.7
20260507054102 65 37 0.0 6.0 0.00 0.00 0.00 93 1005.7
20260507054003 65 37 0.0 6.0 0.00 0.00 0.00 93 1005.7
20260507053904 65 37 1.0 6.0 0.00 0.00 0.00 93 1005.8
20260507053802 65 34 1.0 6.0 0.00 0.00 0.00 93 1005.8
20260507053704 65 124 0.0 4.0 0.00 0.00 0.00 93 1006.0
20260507053605 65 124 1.0 4.0 0.00 0.00 0.00 93 1006.0
20260507053502 65 100 2.0 4.0 0.00 0.00 0.00 93 1006.0
20260507053403 65 89 1.0 5.0 0.00 0.00 0.00 93 1006.0
20260507053302 65 248 0.0 5.0 0.00 0.00 0.00 93 1006.0
20260507053204 65 250 1.0 5.0 0.00 0.00 0.00 93 1006.0
20260507053107 65 145 1.0 5.0 0.00 0.00 0.00 93 1006.0
20260507053004 65 49 1.0 5.0 0.00 0.00 0.00 93 1006.0
20260507052904 65 80 1.0 5.0 0.00 0.00 0.00 93 1006.0
20260507052803 65 94 0.0 5.0 0.00 0.00 0.00 93 1006.0
20260507052703 65 82 0.0 5.0 0.00 0.00 0.00 93 1006.0
20260507052605 65 82 1.0 5.0 0.00 0.00 0.00 93 1005.9
20260507052505 65 79 1.0 5.0 0.00 0.00 0.00 93 1005.9
20260507052405 65 107 0.0 5.0 0.00 0.00 0.00 93 1006.0
20260507052306 65 104 0.0 5.0 0.00 0.00 0.00 93 1006.1
20260507052202 65 103 0.0 5.0 0.00 0.00 0.00 93 1006.1
20260507052103 65 104 0.0 5.0 0.00 0.00 0.00 93 1006.0
20260507052002 66 104 2.0 5.0 0.00 0.00 0.00 93 1006.1
20260507051904 66 59 2.0 5.0 0.00 0.00 0.00 93 1006.0
20260507051802 66 326 0.0 3.0 0.00 0.00 0.00 93 1006.0
20260507051703 66 51 0.0 3.0 0.00 0.00 0.00 93 1006.0
20260507051602 66 51 0.0 3.0 0.00 0.00 0.00 93 1006.0
20260507051504 66 51 0.0 3.0 0.00 0.00 0.00 93 1005.8
20260507051403 66 51 0.0 5.0 0.00 0.00 0.00 93 1005.9
20260507051302 66 48 0.0 5.0 0.00 0.00 0.00 93 1005.7
20260507051203 66 48 0.0 5.0 0.00 0.00 0.00 93 1005.7
20260507051104 66 145 0.0 5.0 0.00 0.00 0.00 93 1005.7
20260507051003 66 145 1.0 5.0 0.00 0.00 0.00 93 1005.7
20260507050902 66 138 1.0 5.0 0.00 0.00 0.00 93 1005.7
20260507050805 66 272 0.0 5.0 0.00 0.00 0.00 93 1005.7
20260507050702 66 272 1.0 5.0 0.00 0.00 0.00 93 1005.7
20260507050604 66 272 1.0 5.0 0.00 0.00 0.00 93 1005.6
20260507050504 66 17 1.0 5.0 0.00 0.00 0.00 93 1005.6
20260507050402 66 141 0.0 5.0 0.00 0.00 0.00 93 1005.6
20260507050303 66 140 0.0 5.0 0.00 0.00 0.00 93 1005.6
20260507050203 66 107 0.0 5.0 0.00 0.00 0.00 93 1005.7
20260507050003 66 75 2.0 10.0 0.00 0.00 0.00 93 1005.6
20260507045904 66 133 1.0 10.0 0.00 0.00 0.00 93 1005.6
20260507045803 66 93 1.0 10.0 0.00 0.00 0.00 93 1005.7
20260507045702 66 90 1.0 10.0 0.00 0.00 0.00 93 1005.6
20260507045602 66 76 0.0 10.0 0.00 0.00 0.00 93 1005.6
20260507045502 66 27 1.0 10.0 0.00 0.00 0.00 93 1005.5
20260507045403 66 30 0.0 10.0 0.00 0.00 0.00 93 1005.5
20260507045302 66 107 2.0 10.0 0.00 0.00 0.00 93 1005.6
20260507045204 66 104 2.0 10.0 0.00 0.00 0.00 93 1005.5
20260507045102 66 31 1.0 4.0 0.00 0.00 0.00 93 1005.5
20260507045003 66 75 1.0 4.0 0.00 0.00 0.00 92 1005.5
20260507044903 66 72 1.0 4.0 0.00 0.00 0.00 92 1005.6
20260507044802 66 94 1.0 4.0 0.00 0.00 0.00 92 1005.6
20260507044702 66 94 2.0 5.0 0.00 0.00 0.00 92 1005.5
20260507044604 66 130 1.0 5.0 0.00 0.00 0.00 92 1005.6
20260507044503 66 82 0.0 7.0 0.00 0.00 0.00 92 1005.6
20260507044401 66 193 0.0 7.0 0.00 0.00 0.00 92 1005.6
20260507044303 66 85 0.0 7.0 0.00 0.00 0.00 92 1005.6
20260507044202 66 85 0.0 7.0 0.00 0.00 0.00 92 1005.6
20260507044104 66 85 1.0 7.0 0.00 0.00 0.00 92 1005.5
20260507044004 66 85 2.0 7.0 0.00 0.00 0.00 92 1005.6
20260507043904 66 56 2.0 7.0 0.00 0.00 0.00 92 1005.6
20260507043804 66 75 0.0 7.0 0.00 0.00 0.00 92 1005.7
20260507043704 66 90 1.0 7.0 0.00 0.00 0.00 92 1005.6
20260507043603 66 86 2.0 7.0 0.00 0.00 0.00 92 1005.6
20260507043504 66 124 2.0 5.0 0.00 0.00 0.00 92 1005.7
20260507043403 66 145 1.0 3.0 0.00 0.00 0.00 92 1005.7
20260507043304 67 41 0.0 3.0 0.00 0.00 0.00 92 1005.7
20260507043204 67 41 0.0 3.0 0.00 0.00 0.00 92 1005.7
20260507043106 67 327 0.0 3.0 0.00 0.00 0.00 92 1005.7
20260507043003 67 324 0.0 3.0 0.00 0.00 0.00 92 1005.7
20260507042902 67 340 1.0 3.0 0.00 0.00 0.00 92 1005.6
20260507042804 67 34 1.0 3.0 0.00 0.00 0.00 92 1005.7
20260507042704 67 116 0.0 3.0 0.00 0.00 0.00 92 1005.6
20260507042603 67 158 0.0 4.0 0.00 0.00 0.00 92 1005.7
20260507042504 67 113 0.0 4.0 0.00 0.00 0.00 92 1005.6
20260507042402 67 113 0.0 4.0 0.00 0.00 0.00 92 1005.6
20260507042306 67 113 0.0 5.0 0.00 0.00 0.00 92 1005.6
20260507042203 67 42 1.0 5.0 0.00 0.00 0.00 92 1005.5
20260507042102 67 127 0.0 5.0 0.00 0.00 0.00 92 1005.6
20260507042005 67 0 1.0 5.0 0.00 0.00 0.00 92 1005.5
20260507041902 67 0 1.0 5.0 0.00 0.00 0.00 92 1005.5
20260507041803 67 326 2.0 5.0 0.00 0.00 0.00 92 1005.5
20260507041704 67 100 2.0 5.0 0.00 0.00 0.00 92 1005.5
20260507041603 67 102 1.0 5.0 0.00 0.00 0.00 92 1005.6
20260507041502 67 31 1.0 5.0 0.00 0.00 0.00 92 1005.5
20260507041403 67 31 1.0 5.0 0.00 0.00 0.00 92 1005.5
20260507041304 67 269 0.0 5.0 0.00 0.00 0.00 92 1005.6
20260507041203 67 79 2.0 5.0 0.00 0.00 0.00 92 1005.6
20260507041103 67 78 2.0 5.0 0.00 0.00 0.00 92 1005.7
20260507041003 67 65 2.0 5.0 0.00 0.00 0.00 92 1005.7
20260507040903 67 65 2.0 5.0 0.00 0.00 0.00 92 1005.6
20260507040802 67 123 0.0 4.0 0.00 0.00 0.00 92 1005.6
20260507040705 67 213 0.0 4.0 0.00 0.00 0.00 92 1005.6
20260507040603 67 118 0.0 4.0 0.00 0.00 0.00 92 1005.5
20260507040503 67 79 0.0 4.0 0.00 0.00 0.00 92 1005.5
20260507040405 67 44 0.0 4.0 0.00 0.00 0.00 92 1005.5
20260507040304 67 103 1.0 4.0 0.00 0.00 0.00 92 1005.6
20260507040202 67 103 1.0 4.0 0.00 0.00 0.00 92 1005.5
20260507040002 67 134 0.0 4.0 0.00 0.00 0.00 92 1005.6
20260507035903 67 135 0.0 4.0 0.00 0.00 0.00 92 1005.6
20260507035803 67 135 0.0 4.0 0.00 0.00 0.00 92 1005.6
20260507035704 67 134 0.0 4.0 0.00 0.00 0.00 92 1005.7
20260507035603 67 134 0.0 4.0 0.00 0.00 0.00 92 1005.6
20260507035503 67 118 1.0 4.0 0.00 0.00 0.00 92 1005.6
20260507035404 67 37 1.0 4.0 0.00 0.00 0.00 92 1005.5
20260507035306 67 59 0.0 4.0 0.00 0.00 0.00 92 1005.5
20260507035203 67 92 0.0 1.0 0.00 0.00 0.00 92 1005.5
20260507035103 67 51 0.0 1.0 0.00 0.00 0.00 92 1005.5
20260507035002 67 27 0.0 1.0 0.00 0.00 0.00 92 1005.6
20260507034903 67 51 0.0 1.0 0.00 0.00 0.00 92 1005.6
20260507034802 67 51 0.0 1.0 0.00 0.00 0.00 92 1005.7
20260507034702 67 51 0.0 1.0 0.00 0.00 0.00 92 1005.6
20260507034604 67 63 0.0 1.0 0.00 0.00 0.00 92 1005.8
20260507034504 67 62 0.0 1.0 0.00 0.00 0.00 92 1005.8
20260507034403 67 62 0.0 1.0 0.00 0.00 0.00 92 1005.8
20260507034303 68 62 0.0 1.0 0.00 0.00 0.00 92 1005.8
20260507034202 68 306 0.0 1.0 0.00 0.00 0.00 92 1005.7
20260507034105 68 306 0.0 2.0 0.00 0.00 0.00 92 1005.6
20260507034003 68 103 0.0 2.0 0.00 0.00 0.00 92 1005.5
20260507033904 68 347 0.0 3.0 0.00 0.00 0.00 92 1005.6
20260507033803 68 45 0.0 3.0 0.00 0.00 0.00 92 1005.6
20260507033703 68 96 0.0 3.0 0.00 0.00 0.00 92 1005.7
20260507033606 68 104 0.0 3.0 0.00 0.00 0.00 92 1005.7
20260507033504 68 104 0.0 3.0 0.00 0.00 0.00 92 1005.8
20260507033403 68 104 0.0 3.0 0.00 0.00 0.00 92 1005.7
20260507033303 68 104 0.0 3.0 0.00 0.00 0.00 92 1005.7
20260507033203 68 93 0.0 3.0 0.00 0.00 0.00 92 1005.8
20260507033103 68 185 0.0 3.0 0.00 0.00 0.00 92 1005.8
20260507033002 68 127 0.0 3.0 0.00 0.00 0.00 92 1005.8
20260507032902 68 1 0.0 3.0 0.00 0.00 0.00 92 1005.7
20260507032802 68 1 0.0 3.0 0.00 0.01 0.00 92 1005.7
20260507032702 68 0 0.0 3.0 0.00 0.01 0.00 92 1005.8
20260507032602 68 347 0.0 3.0 0.00 0.01 0.00 92 1005.6
20260507032505 68 100 1.0 3.0 0.00 0.01 0.00 92 1005.6
20260507032404 68 93 1.0 3.0 0.00 0.01 0.00 92 1005.5
20260507032305 68 195 0.0 1.0 0.00 0.01 0.00 92 1005.5
20260507032204 68 183 0.0 1.0 0.00 0.01 0.00 92 1005.4
20260507032102 68 183 0.0 1.0 0.00 0.01 0.00 92 1005.3
20260507032002 68 183 0.0 2.0 0.00 0.01 0.00 92 1005.3
20260507031902 68 183 0.0 2.0 0.00 0.01 0.00 92 1005.3
20260507031802 68 183 0.0 2.0 0.00 0.01 0.00 92 1005.2
20260507031703 68 183 0.0 2.0 0.00 0.01 0.00 92 1005.2
20260507031602 68 202 0.0 3.0 0.00 0.01 0.00 92 1005.1
20260507031503 68 202 0.0 3.0 0.00 0.01 0.00 91 1005.1
20260507031403 68 202 0.0 3.0 0.00 0.01 0.00 91 1005.1
20260507031303 68 202 0.0 3.0 0.00 0.01 0.00 91 1005.0
20260507031202 68 202 0.0 3.0 0.00 0.01 0.00 91 1005.0
20260507031103 68 200 0.0 3.0 0.00 0.01 0.00 91 1005.1
20260507031002 68 123 0.0 3.0 0.00 0.01 0.00 91 1005.0
20260507030903 68 123 1.0 3.0 0.00 0.01 0.00 91 1005.1
20260507030803 68 124 1.0 3.0 0.00 0.01 0.00 91 1005.1
20260507030705 68 243 0.0 3.0 0.00 0.01 0.00 91 1005.1
20260507030603 68 185 0.0 3.0 0.00 0.01 0.00 91 1005.1
20260507030504 68 186 0.0 3.0 0.00 0.01 0.00 91 1005.0
20260507030402 68 186 1.0 3.0 0.00 0.01 0.00 91 1005.0
20260507030304 68 87 1.0 3.0 0.00 0.01 0.00 91 1004.8
20260507030206 68 87 1.0 3.0 0.00 0.01 0.00 92 1004.8
20260507030006 69 117 0.0 3.0 0.00 0.01 0.00 91 1004.7
20260507025903 69 217 0.0 3.0 0.00 0.01 0.00 91 1004.7
20260507025802 69 219 1.0 3.0 0.00 0.01 0.00 91 1004.6
20260507025704 69 127 0.0 3.0 0.00 0.01 0.00 91 1004.7
20260507025558 69 92 0.0 3.0 0.00 0.01 0.00 91 1004.5
20260507025454 69 89 0.0 3.0 0.00 0.01 0.00 91 1004.6
20260507025346 69 90 0.0 3.0 0.00 0.01 0.00 91 1004.6
20260507025244 69 89 0.0 3.0 0.00 0.01 0.00 91 1004.6
20260507025144 69 89 0.0 3.0 0.00 0.01 0.00 91 1004.5
20260507025046 69 87 0.0 3.0 0.00 0.01 0.00 91 1004.5
20260507024943 69 0 0.0 3.0 0.00 0.01 0.00 91 1004.5
20260507024844 69 6 1.0 3.0 0.00 0.01 0.00 91 1004.4
20260507024743 69 1 0.0 2.0 0.00 0.01 0.00 91 1004.4
20260507024645 69 37 0.0 2.0 0.00 0.01 0.00 91 1004.4
20260507024545 69 39 0.0 2.0 0.00 0.01 0.00 91 1004.4
20260507024444 69 78 0.0 2.0 0.00 0.01 0.00 91 1004.4
20260507024345 69 76 0.0 2.0 0.00 0.01 0.00 91 1004.3
20260507024244 69 76 0.0 2.0 0.00 0.01 0.00 91 1004.3
20260507024143 69 76 1.0 2.0 0.00 0.01 0.00 91 1004.3
20260507024044 69 125 0.0 2.0 0.00 0.01 0.00 91 1004.2
20260507023945 69 123 0.0 6.0 0.00 0.01 0.00 91 1004.2
20260507023844 69 118 0.0 6.0 0.00 0.01 0.00 91 1004.1
20260507023746 69 125 1.0 6.0 0.00 0.01 0.00 91 1004.2
20260507023643 69 266 0.0 9.0 0.00 0.01 0.00 91 1004.2
20260507023544 69 203 0.0 9.0 0.00 0.01 0.00 91 1004.2
20260507023444 69 124 0.0 9.0 0.00 0.01 0.00 91 1004.2
20260507023344 69 125 0.0 9.0 0.00 0.01 0.00 91 1004.2
20260507023243 69 123 0.0 9.0 0.00 0.01 0.00 91 1004.1
20260507023143 69 157 1.0 9.0 0.00 0.01 0.00 91 1004.1
20260507023043 69 0 2.0 9.0 0.00 0.01 0.00 91 1004.0
20260507022943 69 127 1.0 9.0 0.00 0.01 0.00 91 1004.0
20260507022845 69 38 2.0 9.0 0.00 0.01 0.00 92 1003.9
20260507022743 69 355 1.0 9.0 0.00 0.01 0.00 92 1004.0
20260507022644 69 109 0.0 2.0 0.00 0.01 0.00 92 1004.0
20260507022546 69 7 0.0 2.0 0.00 0.01 0.00 92 1003.9
20260507022444 69 283 0.0 2.0 0.00 0.01 0.00 92 1003.9
20260507022343 69 264 0.0 2.0 0.00 0.01 0.00 92 1003.9
20260507022244 69 262 0.0 2.0 0.00 0.01 0.00 91 1003.8
20260507022144 69 96 0.0 2.0 0.00 0.01 0.00 91 1003.8
20260507022043 69 52 0.0 2.0 0.00 0.01 0.00 91 1003.9
20260507021944 69 52 0.0 3.0 0.00 0.01 0.00 91 1003.9
20260507021844 70 52 0.0 3.0 0.00 0.01 0.00 91 1003.9
20260507021744 70 52 1.0 3.0 0.00 0.01 0.00 92 1003.8
20260507021643 70 59 0.0 3.0 0.00 0.01 0.00 92 1003.8
20260507021543 70 78 0.0 3.0 0.00 0.01 0.00 92 1003.8
20260507021445 70 78 0.0 3.0 0.00 0.01 0.00 92 1003.7
20260507021343 70 78 0.0 3.0 0.00 0.01 0.00 92 1003.6
20260507021244 70 344 0.0 3.0 0.00 0.01 0.00 91 1003.6
20260507021144 70 344 0.0 3.0 0.00 0.01 0.00 91 1003.6
20260507021044 70 0 0.0 3.0 0.00 0.01 0.00 92 1003.7
20260507020943 70 133 0.0 2.0 0.00 0.01 0.00 92 1003.6
20260507020844 70 92 0.0 2.0 0.00 0.01 0.00 92 1003.6
20260507020744 70 75 0.0 2.0 0.00 0.01 0.00 92 1003.6
20260507020644 70 278 0.0 2.0 0.00 0.01 0.00 92 1003.5
20260507020544 70 278 0.0 2.0 0.00 0.01 0.00 92 1003.6
20260507020443 70 278 0.0 2.0 0.00 0.01 0.00 92 1003.5
20260507020342 70 279 0.0 2.0 0.00 0.01 0.00 92 1003.5
20260507020244 70 276 0.0 2.0 0.00 0.01 0.00 92 1003.5
20260507020154 70 68 0.0 2.0 0.00 0.01 0.00 92 1003.5
20260507020043 70 68 0.0 3.0 0.00 0.01 0.00 92 1003.4
20260507015943 70 162 0.0 3.0 0.00 0.01 0.00 92 1003.5
20260507015843 70 45 0.0 3.0 0.00 0.01 0.00 92 1003.4
20260507015742 70 44 0.0 3.0 0.00 0.01 0.00 92 1003.5
20260507015645 70 44 0.0 3.0 0.00 0.01 0.00 92 1003.4
20260507015542 70 44 0.0 3.0 0.00 0.01 0.00 92 1003.4
20260507015442 70 44 0.0 3.0 0.00 0.01 0.00 92 1003.3
20260507015343 70 44 0.0 3.0 0.00 0.01 0.00 92 1003.3
20260507015242 70 25 0.0 3.0 0.00 0.01 0.00 92 1003.4
20260507015146 70 41 0.0 3.0 0.00 0.01 0.00 91 1003.3
20260507015043 70 71 0.0 2.0 0.00 0.01 0.00 91 1003.2
20260507014942 70 71 0.0 2.0 0.00 0.01 0.00 91 1003.3
20260507014844 70 71 0.0 2.0 0.00 0.01 0.00 91 1003.3
20260507014743 70 71 0.0 2.0 0.00 0.01 0.00 91 1003.3
20260507014643 70 71 0.0 2.0 0.00 0.01 0.00 91 1003.2
20260507014542 71 71 0.0 3.0 0.00 0.01 0.00 91 1003.3
20260507014442 71 72 0.0 3.0 0.00 0.01 0.00 91 1003.2
20260507014342 71 0 0.0 3.0 0.00 0.01 0.00 91 1003.2
20260507014244 71 355 0.0 3.0 0.00 0.01 0.00 92 1003.3
20260507014142 71 69 0.0 3.0 0.00 0.01 0.00 91 1003.1
20260507014043 71 65 0.0 3.0 0.00 0.01 0.00 91 1003.1
20260507013942 71 68 0.0 3.0 0.00 0.01 0.00 91 1003.1
20260507013844 71 68 0.0 3.0 0.00 0.01 0.00 91 1003.1
20260507013742 71 68 1.0 3.0 0.00 0.01 0.00 91 1003.1
20260507013642 71 59 1.0 3.0 0.00 0.01 0.00 91 1002.9
20260507013542 71 97 1.0 3.0 0.00 0.01 0.00 91 1003.1
20260507013444 71 130 1.0 3.0 0.00 0.01 0.00 91 1002.9
20260507013343 71 337 1.0 3.0 0.00 0.01 0.00 91 1003.0
20260507013243 71 118 0.0 1.0 0.00 0.01 0.00 91 1002.8
20260507013142 71 123 0.0 1.0 0.00 0.01 0.00 91 1002.8
20260507013053 71 123 0.0 1.0 0.00 0.01 0.00 91 1002.7
20260507012942 71 123 0.0 1.0 0.00 0.01 0.00 91 1002.8
20260507012844 71 123 0.0 1.0 0.00 0.01 0.00 91 1002.8
20260507012743 71 123 0.0 1.0 0.00 0.01 0.00 91 1002.7
20260507012643 71 123 0.0 1.0 0.00 0.01 0.00 91 1002.8
20260507012543 71 123 0.0 2.0 0.00 0.01 0.00 91 1002.8
20260507012432 71 123 0.0 2.0 0.00 0.01 0.00 91 1002.7
20260507012331 71 62 0.0 4.0 0.00 0.01 0.00 91 1002.8
20260507012229 71 62 0.0 4.0 0.00 0.01 0.00 91 1002.7
20260507012126 71 61 0.0 4.0 0.00 0.01 0.00 91 1002.7
20260507012025 71 61 0.0 4.0 0.00 0.01 0.00 91 1002.7
20260507011918 71 134 0.0 4.0 0.00 0.01 0.00 91 1002.8
20260507011811 71 17 0.0 4.0 0.00 0.01 0.00 91 1002.8
20260507011712 71 18 0.0 4.0 0.00 0.01 0.00 91 1002.7
20260507011605 71 18 1.0 4.0 0.00 0.01 0.00 91 1002.7
20260507011504 71 14 1.0 4.0 0.00 0.01 0.00 91 1002.8
20260507011404 71 76 0.0 4.0 0.00 0.01 0.00 91 1002.7
20260507011304 71 75 0.0 4.0 0.00 0.01 0.00 91 1002.6
20260507011203 71 75 0.0 4.0 0.00 0.01 0.00 91 1002.7
20260507011101 71 75 0.0 4.0 0.00 0.01 0.00 91 1002.7
20260507011002 71 75 0.0 4.0 0.00 0.01 0.00 91 1002.7
20260507010902 71 76 0.0 4.0 0.00 0.01 0.00 91 1002.8
20260507010805 72 75 1.0 4.0 0.00 0.01 0.00 91 1002.7
20260507010703 72 169 1.0 4.0 0.00 0.01 0.00 91 1002.7
20260507010602 72 128 0.0 3.0 0.00 0.01 0.00 91 1002.7
20260507010459 72 128 0.0 3.0 0.00 0.01 0.00 91 1002.6
20260507010352 72 128 0.0 3.0 0.00 0.01 0.00 91 1002.6
20260507010250 72 28 0.0 2.0 0.00 0.01 0.00 91 1002.5
20260507010143 72 24 1.0 2.0 0.00 0.01 0.00 91 1002.6
20260507010045 72 39 1.0 2.0 0.00 0.01 0.00 91 1002.5
20260507005941 72 121 0.0 2.0 0.00 0.01 0.00 91 1002.5
20260507005844 72 83 0.0 2.0 0.00 0.01 0.00 91 1002.5
20260507005741 72 78 0.0 2.0 0.00 0.01 0.00 91 1002.5
20260507005643 72 78 0.0 2.0 0.00 0.01 0.00 91 1002.4
20260507005543 72 78 0.0 2.0 0.00 0.01 0.00 91 1002.5
20260507005442 72 78 0.0 2.0 0.00 0.01 0.00 91 1002.5
20260507005341 72 17 0.0 2.0 0.00 0.01 0.00 91 1002.5
20260507005243 72 79 0.0 2.0 0.00 0.01 0.00 91 1002.4
20260507005132 72 79 0.0 2.0 0.00 0.01 0.00 91 1002.5
20260507005031 72 99 0.0 2.0 0.00 0.01 0.00 91 1002.5
20260507004932 72 13 1.0 2.0 0.00 0.01 0.00 91 1002.4
20260507004829 72 102 1.0 2.0 0.00 0.01 0.00 91 1002.4
20260507004720 72 49 0.0 2.0 0.00 0.01 0.00 91 1002.3
20260507004610 72 316 0.0 2.0 0.00 0.01 0.00 91 1002.3
20260507004507 72 316 0.0 2.0 0.00 0.01 0.00 91 1002.3
20260507004405 72 63 1.0 2.0 0.00 0.01 0.00 91 1002.3
20260507004304 73 78 0.0 2.0 0.00 0.01 0.00 91 1002.3
20260507004202 73 85 0.0 2.0 0.00 0.01 0.00 91 1002.3
20260507004103 73 55 0.0 2.0 0.00 0.01 0.00 91 1002.3
20260507004004 73 135 0.0 2.0 0.00 0.01 0.00 91 1002.3
20260507003903 73 107 0.0 2.0 0.00 0.01 0.00 91 1002.3
20260507003802 73 120 0.0 2.0 0.00 0.01 0.00 91 1002.3
20260507003702 73 123 0.0 2.0 0.00 0.01 0.00 91 1002.2
20260507003602 73 124 0.0 2.0 0.00 0.01 0.00 91 1002.3
20260507003503 73 118 0.0 2.0 0.00 0.01 0.00 91 1002.2
20260507003404 73 118 0.0 2.0 0.00 0.01 0.00 91 1002.2
20260507003304 73 118 0.0 2.0 0.00 0.01 0.00 91 1002.2
20260507003204 73 117 0.0 2.0 0.00 0.01 0.00 91 1002.2
20260507003109 73 117 0.0 2.0 0.00 0.01 0.00 91 1002.1
20260507003002 73 90 0.0 2.0 0.00 0.01 0.00 91 1002.2
20260507002902 73 89 1.0 2.0 0.00 0.01 0.00 91 1002.1
20260507002804 73 351 0.0 3.0 0.00 0.01 0.00 91 1002.1
20260507002702 73 0 0.0 3.0 0.00 0.01 0.00 91 1002.2
20260507002606 73 0 0.0 3.0 0.00 0.01 0.00 91 1002.1
20260507002504 73 0 0.0 5.0 0.00 0.01 0.00 91 1002.1
20260507002401 73 0 0.0 5.0 0.00 0.01 0.00 91 1002.0
20260507002306 73 49 0.0 5.0 0.00 0.01 0.00 91 1002.0
20260507002204 73 68 0.0 5.0 0.00 0.01 0.00 90 1002.0
20260507002105 73 71 0.0 5.0 0.00 0.01 0.00 90 1002.0
20260507002003 74 71 1.0 5.0 0.00 0.01 0.00 90 1002.0
20260507001903 74 298 1.0 5.0 0.00 0.01 0.00 90 1002.0
20260507001803 74 298 1.0 5.0 0.00 0.01 0.00 90 1001.9
20260507001702 74 124 2.0 5.0 0.00 0.01 0.00 90 1001.9
20260507001602 74 71 2.0 5.0 0.00 0.01 0.00 90 1001.9
20260507001503 74 114 0.0 2.0 0.00 0.01 0.00 90 1001.9
20260507001404 74 116 0.0 2.0 0.00 0.01 0.00 90 1001.9
20260507001305 74 117 0.0 2.0 0.00 0.01 0.00 90 1001.8
20260507001204 74 116 0.0 2.0 0.00 0.01 0.00 90 1001.9
20260507001103 74 116 0.0 2.0 0.00 0.01 0.00 90 1001.8
20260507001004 74 116 0.0 2.0 0.00 0.01 0.00 90 1001.8
20260507000904 74 116 0.0 2.0 0.00 0.01 0.00 90 1001.8
20260507000802 74 116 0.0 3.0 0.00 0.01 0.00 90 1001.8
20260507000703 74 116 0.0 3.0 0.00 0.01 0.00 90 1001.8
20260507000602 74 109 0.0 3.0 0.00 0.01 0.00 90 1001.8
20260507000502 74 107 0.0 3.0 0.00 0.01 0.00 90 1001.8
20260507000405 74 107 0.0 3.0 0.00 0.01 0.00 90 1001.7
20260507000302 74 107 0.0 3.0 0.00 0.01 0.00 90 1001.7
20260507000204 75 107 0.0 3.0 0.00 0.01 0.00 90 1001.7
20260507000003 75 107 1.0 3.0 0.00 0.01 0.00 90 1001.7
20260506235904 75 104 1.0 3.0 0.00 0.01 0.00 90 1001.8
20260506235803 75 243 0.0 1.0 0.00 0.01 0.00 89 1001.8
20260506235704 75 243 0.0 1.0 0.00 0.01 0.00 89 1001.8
20260506235602 75 243 0.0 2.0 0.00 0.01 0.00 89 1001.9
20260506235504 75 243 0.0 3.0 0.00 0.01 0.00 89 1001.8
20260506235403 75 111 0.0 3.0 0.00 0.01 0.00 89 1001.9
20260506235306 75 109 0.0 3.0 0.00 0.01 0.00 89 1001.9
20260506235208 75 125 0.0 3.0 0.00 0.01 0.00 89 1001.9
20260506235103 75 125 0.0 3.0 0.00 0.01 0.00 89 1001.9
20260506235003 75 125 0.0 3.0 0.00 0.01 0.00 89 1001.9
20260506234903 76 125 0.0 3.0 0.00 0.01 0.00 89 1001.8
20260506234804 76 127 0.0 3.0 0.00 0.01 0.00 89 1001.8
20260506234708 76 124 1.0 3.0 0.00 0.01 0.00 89 1001.8
20260506234603 76 183 0.0 3.0 0.00 0.01 0.00 89 1001.8
20260506234504 76 65 1.0 3.0 0.00 0.01 0.00 89 1001.8
20260506234401 76 61 1.0 3.0 0.00 0.01 0.00 89 1001.8
20260506234303 76 114 1.0 3.0 0.00 0.01 0.00 89 1001.7
20260506234202 76 65 0.0 3.0 0.00 0.01 0.00 89 1001.7
20260506234102 76 63 1.0 3.0 0.00 0.01 0.00 89 1001.6
20260506234004 77 79 1.0 3.0 0.00 0.01 0.00 89 1001.7
20260506233904 77 62 1.0 3.0 0.00 0.01 0.00 89 1001.7
20260506233803 77 164 0.0 1.0 0.00 0.01 0.00 89 1001.8
20260506233703 77 227 0.0 1.0 0.00 0.01 0.00 89 1001.8
20260506233603 77 228 0.0 1.0 0.00 0.01 0.00 89 1001.8
20260506233505 77 151 0.0 0.0 0.00 0.01 0.00 89 1001.7
20260506233404 0 0.0 0.0 0.00 0.01 0.00 1001.6
20260506233304 0 0.0 0.0 0.00 0.01 0.00 1001.6
20260506233204 0 0.0 0.0 0.00 0.01 0.00 1001.6
20260506233105 0 0.0 0.0 0.00 0.01 0.00 1001.5
20260506233004 0 0.0 0.0 0.00 0.01 0.00 1001.6
20260506232904 0 0.0 0.0 0.00 0.01 0.00 1001.5
20260506232803 79 117 1.0 3.0 0.00 0.01 0.00 89 1001.6
20260506232703 79 117 1.0 3.0 0.00 0.01 0.00 89 1001.6
20260506232603 79 117 1.0 4.0 0.00 0.01 0.00 89 1001.6
20260506232504 79 117 1.0 4.0 0.00 0.01 0.00 89 1001.6
20260506232403 79 117 1.0 4.0 0.00 0.01 0.00 89 1001.5
20260506232306 79 117 1.0 4.0 0.00 0.01 0.00 89 1001.5
20260506232204 79 117 1.0 4.0 0.00 0.01 0.00 89 1001.5
20260506232103 79 117 1.0 4.0 0.00 0.01 0.00 89 1001.5
20260506232004 79 117 1.0 4.0 0.00 0.01 0.00 89 1001.5
20260506231904 79 117 1.0 4.0 0.00 0.01 0.00 89 1001.5
20260506231802 79 117 1.0 4.0 0.00 0.01 0.00 89 1001.4
20260506231703 80 326 1.0 4.0 0.00 0.01 0.00 89 1001.4
20260506231603 80 97 0.0 3.0 0.00 0.01 0.00 89 1001.3
20260506231506 80 97 0.0 3.0 0.00 0.01 0.00 89 1001.4
20260506231404 80 97 1.0 3.0 0.00 0.01 0.00 90 1001.3
20260506231303 80 97 1.0 7.0 0.00 0.01 0.00 90 1001.4
20260506231202 80 86 0.0 7.0 0.00 0.01 0.00 90 1001.3
20260506231103 80 341 0.0 7.0 0.00 0.01 0.00 90 1001.3
20260506231002 80 341 0.0 7.0 0.00 0.01 0.00 90 1001.2
20260506230903 80 341 0.0 7.0 0.00 0.01 0.00 90 1001.3
20260506230805 80 341 1.0 7.0 0.00 0.01 0.00 90 1001.2
20260506230702 81 135 1.0 7.0 0.00 0.01 0.00 90 1001.3
20260506230604 81 102 1.0 7.0 0.00 0.01 0.00 90 1001.1
20260506230504 81 327 2.0 7.0 0.00 0.01 0.00 90 1001.0
20260506230402 81 83 2.0 7.0 0.00 0.01 0.00 90 1001.1
20260506230303 81 0 0.0 3.0 0.00 0.01 0.00 90 1001.0
20260506230203 81 0 0.0 3.0 0.00 0.01 0.00 90 1001.0
20260506230005 82 3 1.0 2.0 0.00 0.01 0.00 91 1001.0
20260506225904 82 73 1.0 2.0 0.00 0.01 0.00 91 1001.0
20260506225803 82 341 0.0 1.0 0.00 0.01 0.00 91 1001.0
20260506225702 82 47 0.0 1.0 0.00 0.01 0.00 90 1001.0
20260506225603 82 102 0.0 0.0 0.00 0.01 0.00 90 1000.9
20260506225503 82 103 0.0 0.0 0.00 0.01 0.00 90 1001.0
20260506225402 82 103 0.0 0.0 0.00 0.01 0.00 90 1001.0
20260506225306 82 103 0.0 0.0 0.00 0.01 0.00 90 1001.0
20260506225203 82 103 0.0 0.0 0.00 0.01 0.00 90 1001.0
20260506225103 82 65 0.0 0.0 0.00 0.01 0.00 90 1001.0
20260506225003 82 65 0.0 0.0 0.00 0.01 0.00 90 1001.0
20260506224904 82 65 0.0 0.0 0.00 0.01 0.00 90 1001.0
20260506224802 82 117 0.0 0.0 0.00 0.01 0.00 90 1000.9
20260506224702 82 117 0.0 0.0 0.00 0.01 0.00 90 1000.9
20260506224602 82 117 0.0 0.0 0.00 0.01 0.00 90 1000.8
20260506224503 82 117 0.0 0.0 0.00 0.01 0.00 90 1000.8
20260506224403 83 117 0.0 0.0 0.00 0.01 0.00 90 1000.8
20260506224304 83 117 0.0 0.0 0.00 0.01 0.00 90 1000.9
20260506224202 83 117 0.0 0.0 0.00 0.01 0.00 90 1000.9
20260506224103 83 117 0.0 0.0 0.00 0.01 0.00 90 1000.9
20260506224003 83 117 0.0 0.0 0.00 0.01 0.00 90 1000.9
20260506223904 83 117 0.0 0.0 0.00 0.01 0.00 90 1000.8
20260506223805 83 117 0.0 0.0 0.00 0.01 0.00 90 1000.8
20260506223704 83 117 0.0 0.0 0.00 0.01 0.00 89 1000.8
20260506223604 83 117 0.0 0.0 0.00 0.01 0.00 89 1000.7
20260506223505 83 117 0.0 0.0 0.00 0.01 0.00 89 1000.7
20260506223404 83 117 0.0 0.0 0.00 0.01 0.00 89 1000.7
20260506223302 83 117 0.0 0.0 0.00 0.01 0.00 89 1000.7
20260506223213 83 117 0.0 0.0 0.00 0.01 0.00 89 1000.7
20260506223103 83 117 0.0 0.0 0.00 0.01 0.00 89 1000.7
20260506223004 83 117 0.0 0.0 0.00 0.01 0.00 89 1000.7
20260506222903 83 117 0.0 0.0 0.00 0.01 0.00 89 1000.7
20260506222803 83 117 0.0 0.0 0.00 0.01 0.00 89 1000.7
20260506222706 83 117 0.0 0.0 0.00 0.01 0.00 89 1000.7
20260506222603 83 117 0.0 0.0 0.00 0.01 0.00 89 1000.7
20260506222503 83 117 0.0 0.0 0.00 0.01 0.00 88 1000.6
20260506222404 84 117 0.0 0.0 0.00 0.01 0.00 88 1000.7
20260506222305 84 117 0.0 0.0 0.00 0.01 0.00 88 1000.6
20260506222203 84 117 0.0 0.0 0.00 0.01 0.00 88 1000.6
20260506222102 84 117 0.0 0.0 0.00 0.01 0.00 88 1000.7
20260506222004 84 117 0.0 0.0 0.00 0.01 0.00 88 1000.7
20260506221903 84 117 0.0 0.0 0.00 0.01 0.00 88 1000.6
20260506221803 84 117 0.0 0.0 0.00 0.01 0.00 88 1000.6
20260506221703 84 117 0.0 0.0 0.00 0.01 0.00 87 1000.6
20260506221603 84 117 0.0 0.0 0.00 0.01 0.00 87 1000.6
20260506221504 84 117 0.0 0.0 0.00 0.01 0.00 87 1000.6
20260506221403 84 117 0.0 0.0 0.00 0.01 0.00 87 1000.5
20260506221303 84 117 0.0 0.0 0.00 0.01 0.00 87 1000.6
20260506221204 84 117 0.0 0.0 0.00 0.01 0.00 86 1000.6
20260506221103 84 117 0.0 0.0 0.00 0.01 0.00 86 1000.5
20260506221004 84 117 0.0 0.0 0.00 0.01 0.00 86 1000.6
20260506220904 84 117 0.0 0.0 0.00 0.01 0.00 86 1000.6
20260506220803 84 117 0.0 0.0 0.00 0.01 0.00 86 1000.6
20260506220703 85 117 0.0 0.0 0.00 0.01 0.00 86 1000.6
20260506220604 85 117 0.0 0.0 0.00 0.01 0.00 86 1000.6
20260506220503 85 117 0.0 0.0 0.00 0.01 0.00 86 1000.6
20260506220403 85 117 0.0 0.0 0.00 0.01 0.00 86 1000.6
20260506220314 85 117 0.0 0.0 0.00 0.01 0.00 85 1000.6
20260506220308 85 117 0.0 0.0 0.00 0.01 0.00 86 1000.6
20260506220248 85 117 0.0 0.0 0.00 0.01 0.00 86 1000.6
20260506220229 85 117 0.0 0.0 0.00 0.01 0.00 85 1000.6
20260506215903 85 117 0.0 0.0 0.00 0.01 0.00 85 1000.6
20260506215803 85 117 0.0 0.0 0.00 0.01 0.00 85 1000.6
20260506215704 85 117 0.0 0.0 0.00 0.01 0.00 85 1000.6
20260506215604 85 117 0.0 0.0 0.00 0.01 0.00 85 1000.6
20260506215504 85 117 0.0 0.0 0.00 0.01 0.00 85 1000.7
20260506215405 85 117 0.0 0.0 0.00 0.01 0.00 85 1000.6
20260506215305 85 117 0.0 0.0 0.00 0.01 0.00 85 1000.6
20260506215203 85 117 0.0 0.0 0.00 0.01 0.00 85 1000.5
20260506215103 85 117 0.0 0.0 0.00 0.01 0.00 85 1000.5
20260506215004 85 117 0.0 0.0 0.00 0.01 0.00 85 1000.6
20260506214904 85 117 0.0 0.0 0.00 0.01 0.00 85 1000.5
20260506214804 85 117 0.0 0.0 0.00 0.01 0.00 85 1000.5
20260506214704 85 117 0.0 0.0 0.00 0.01 0.00 85 1000.5
20260506214604 85 117 0.0 0.0 0.00 0.01 0.00 85 1000.5
20260506214503 85 117 0.0 0.0 0.00 0.01 0.00 85 1000.6
20260506214404 85 117 0.0 0.0 0.00 0.01 0.00 85 1000.5
20260506214303 85 117 0.0 0.0 0.00 0.01 0.00 85 1000.5
20260506214203 85 117 0.0 0.0 0.00 0.01 0.00 85 1000.5
20260506214104 85 117 0.0 0.0 0.00 0.01 0.00 85 1000.5
20260506214003 85 117 0.0 0.0 0.00 0.01 0.00 85 1000.5
20260506213904 85 117 0.0 0.0 0.00 0.01 0.00 85 1000.6
20260506213803 85 117 0.0 0.0 0.00 0.01 0.00 85 1000.6
20260506213703 85 117 0.0 0.0 0.00 0.01 0.00 85 1000.6
20260506213602 85 117 0.0 0.0 0.00 0.01 0.00 85 1000.6
20260506213502 85 117 0.0 0.0 0.00 0.01 0.00 85 1000.6
20260506213403 85 117 0.0 0.0 0.00 0.01 0.00 85 1000.6
20260506213303 85 117 0.0 0.0 0.00 0.01 0.00 85 1000.7
20260506213203 85 117 0.0 0.0 0.00 0.01 0.00 85 1000.6
20260506213104 85 117 0.0 0.0 0.00 0.01 0.00 85 1000.6
20260506213003 85 117 0.0 0.0 0.00 0.01 0.00 85 1000.6
20260506212904 85 117 0.0 0.0 0.00 0.01 0.00 85 1000.6
20260506212804 85 117 0.0 0.0 0.00 0.01 0.00 85 1000.6
20260506212703 85 117 0.0 0.0 0.00 0.01 0.00 85 1000.6
20260506212602 85 117 0.0 0.0 0.00 0.01 0.00 85 1000.6
20260506212503 85 117 0.0 0.0 0.00 0.01 0.00 85 1000.6
20260506212403 85 117 0.0 0.0 0.00 0.01 0.00 85 1000.6
20260506212306 85 117 0.0 0.0 0.00 0.01 0.00 85 1000.6
20260506212202 85 117 0.0 0.0 0.00 0.01 0.00 85 1000.6
20260506212104 85 117 0.0 0.0 0.00 0.01 0.00 85 1000.6
20260506212004 85 117 0.0 0.0 0.00 0.01 0.00 85 1000.6
20260506211902 85 117 0.0 0.0 0.00 0.01 0.00 86 1000.7
20260506211802 85 117 0.0 0.0 0.00 0.01 0.00 86 1000.6
20260506211704 85 117 0.0 0.0 0.00 0.01 0.00 86 1000.6
20260506211604 85 117 0.0 0.0 0.00 0.01 0.00 86 1000.7
20260506211503 85 117 0.0 0.0 0.00 0.01 0.00 86 1000.6
20260506211404 85 117 0.0 0.0 0.00 0.01 0.00 86 1000.6
20260506211302 85 117 0.0 0.0 0.00 0.01 0.00 86 1000.7
20260506211203 85 117 0.0 0.0 0.00 0.01 0.00 86 1000.6
20260506211102 85 117 0.0 0.0 0.00 0.01 0.00 86 1000.6
20260506211004 85 117 0.0 0.0 0.00 0.01 0.00 85 1000.7
20260506210902 85 117 0.0 0.0 0.00 0.01 0.00 86 1000.6
20260506210804 85 117 0.0 0.0 0.00 0.01 0.00 86 1000.6
20260506210702 85 117 0.0 0.0 0.00 0.01 0.00 86 1000.6
20260506210602 85 117 0.0 0.0 0.00 0.01 0.00 86 1000.7
20260506210503 85 117 0.0 0.0 0.00 0.01 0.00 86 1000.6
20260506210402 85 117 0.0 0.0 0.00 0.01 0.00 86 1000.7
20260506210302 85 117 0.0 0.0 0.00 0.01 0.00 86 1000.7
20260506210203 85 117 0.0 0.0 0.00 0.01 0.00 86 1000.7
20260506210104 85 117 0.0 0.0 0.00 0.01 0.00 86 1000.7
20260506210005 85 117 0.0 0.0 0.00 0.01 0.00 86 1000.7
20260506205904 85 117 0.0 0.0 0.00 0.01 0.00 86 1000.6
20260506205803 85 117 0.0 0.0 0.00 0.01 0.00 86 1000.7
20260506205712 85 117 0.0 0.0 0.00 0.01 0.00 86 1000.6
20260506205600 85 117 0.0 0.0 0.00 0.01 0.00 87 1000.7
20260506205457 84 117 0.0 0.0 0.00 0.01 0.00 87 1000.7
20260506205352 84 117 0.0 0.0 0.00 0.01 0.00 87 1000.7
20260506205248 84 117 0.0 0.0 0.00 0.01 0.00 87 1000.8
20260506205143 84 117 0.0 0.0 0.00 0.01 0.00 87 1000.8
20260506205038 84 117 0.0 0.0 0.00 0.01 0.00 87 1000.8
20260506204932 84 117 0.0 0.0 0.00 0.01 0.00 87 1000.9
20260506204832 84 111 0.0 0.0 0.00 0.01 0.00 87 1000.8
20260506204732 84 111 0.0 0.0 0.00 0.01 0.00 87 1000.9
20260506204632 84 111 0.0 0.0 0.00 0.01 0.00 87 1001.0
20260506204531 84 111 0.0 0.0 0.00 0.01 0.00 87 1000.9
20260506204433 84 111 0.0 0.0 0.00 0.01 0.00 87 1000.9
20260506204331 84 111 0.0 0.0 0.00 0.01 0.00 87 1000.9
20260506204231 84 111 0.0 0.0 0.00 0.01 0.00 87 1001.0
20260506204132 84 111 0.0 0.0 0.00 0.01 0.00 88 1000.9
20260506204032 84 111 0.0 0.0 0.00 0.01 0.00 88 1000.9
20260506203931 84 111 0.0 0.0 0.00 0.01 0.00 88 1000.9
20260506203832 84 111 0.0 0.0 0.00 0.01 0.00 88 1000.8
20260506203731 84 111 0.0 0.0 0.00 0.01 0.00 88 1000.8
20260506203631 83 118 0.0 0.0 0.00 0.01 0.00 89 1000.9
20260506203533 83 130 0.0 0.0 0.00 0.01 0.00 89 1000.9
20260506203431 83 130 0.0 0.0 0.00 0.01 0.00 89 1000.9
20260506203331 83 117 0.0 0.0 0.00 0.01 0.00 89 1000.8
20260506203231 83 117 0.0 0.0 0.00 0.01 0.00 89 1000.9
20260506203136 83 116 0.0 0.0 0.00 0.01 0.00 89 1000.9
20260506203031 83 114 0.0 0.0 0.00 0.01 0.00 89 1000.9
20260506202930 83 114 0.0 0.0 0.00 0.01 0.00 89 1000.9
20260506202831 83 114 0.0 1.0 0.00 0.01 0.00 89 1000.9
20260506202731 83 114 0.0 1.0 0.00 0.01 0.00 89 1000.9
20260506202634 83 114 0.0 1.0 0.00 0.01 0.00 89 1000.8
20260506202532 83 110 0.0 1.0 0.00 0.01 0.00 90 1000.9
20260506202431 83 110 0.0 1.0 0.00 0.01 0.00 90 1000.9
20260506202331 83 110 0.0 2.0 0.00 0.01 0.00 90 1000.8
20260506202231 83 195 0.0 2.0 0.00 0.01 0.00 89 1000.9
20260506202132 83 199 0.0 2.0 0.00 0.01 0.00 89 1000.8
20260506202031 83 199 0.0 2.0 0.00 0.01 0.00 89 1000.9
20260506201933 82 199 0.0 2.0 0.00 0.01 0.00 90 1000.9
20260506201832 82 73 0.0 2.0 0.00 0.01 0.00 90 1000.9
20260506201732 82 73 0.0 3.0 0.00 0.01 0.00 90 1000.9
20260506201632 82 73 0.0 3.0 0.00 0.01 0.00 90 1000.9
20260506201531 82 73 1.0 3.0 0.00 0.01 0.00 90 1000.9
20260506201429 82 73 0.0 3.0 0.00 0.01 0.00 90 1000.9
20260506201329 82 72 0.0 3.0 0.00 0.01 0.00 90 1001.0
20260506201230 82 72 0.0 3.0 0.00 0.01 0.00 90 1001.0
20260506201131 82 72 0.0 3.0 0.00 0.01 0.00 90 1001.0
20260506201029 82 72 0.0 3.0 0.00 0.01 0.00 90 1001.0
20260506200931 82 72 1.0 3.0 0.00 0.01 0.00 90 1001.1
20260506200831 82 72 1.0 3.0 0.00 0.01 0.00 91 1001.1
20260506200731 82 68 0.0 1.0 0.00 0.01 0.00 91 1001.0
20260506200631 82 68 0.0 1.0 0.00 0.01 0.00 90 1001.1
20260506200530 82 68 0.0 1.0 0.00 0.01 0.00 90 1001.1
20260506200429 82 68 0.0 1.0 0.00 0.01 0.00 90 1001.1
20260506200330 82 68 0.0 1.0 0.00 0.01 0.00 90 1001.1
20260506200230 82 68 0.0 1.0 0.00 0.01 0.00 90 1001.1
20260506200132 82 69 0.0 1.0 0.00 0.01 0.00 90 1001.1
20260506200030 82 68 0.0 1.0 0.00 0.01 0.00 90 1001.2
20260506195929 82 68 0.0 1.0 0.00 0.01 0.00 90 1001.2
20260506195829 82 104 0.0 1.0 0.00 0.01 0.00 90 1001.1